GFSFLT1_con_mucape_000.txt.gz
CAPE
93 27 48 15 0 0 0 0 0 0 0 1 1 0 0 7 0 0 0 0 0 0 14 18 11 0 2 3 0 19 40 14 3
238 101 79 14 0 0 0 0 0 0 4 14 67 13 14 0 0 0 0 0 0 0 7 12 18 18 18 12 12 10 16 38 27
181 121 59 14 6 0 7 8 10 0 0 1 6 74 39 0 0 0 0 0 0 0 4 21 14 13 19 21 25 28 24 20 22
61 286 112 51 19 19 30 29 4 6 9 1 4 70 37 0 0 0 0 0 0 0 2 11 18 21 17 14 15 21 29 35 36
46 198 132 76 77 81 23 7 17 26 30 19 104 52 0 0 0 0 0 0 0 17 21 4 11 15 17 14 14 13 19 34 22
1 31 58 174 83 63 87 96 141 277 162 127 105 8 0 0 0 0 0 0 17 14 25 64 45 14 33 62 14 27 22 18 23
0 9 48 112 171 246 229 249 429 296 24 0 0 4 1 0 3 0 0 0 44 77 199 445 355 275 287 174 29 44 40 42 45
10 22 53 80 96 101 85 34 9 10 5 0 0 0 0 0 0 0 0 10 37 123 207 385 324 267 345 292 158 377 523 226 292
72 107 140 117 165 102 32 5 2 0 0 0 0 0 0 0 0 0 0 0 0 33 23 149 353 557 373 122 418 368 279 229 279
129 128 118 111 37 12 2 0 0 0 0 0 0 0 0 0 0 0 0 0 0 2 8 34 55 168 191 139 193 189 148 153 342
99 35 77 34 0 0 0 0 0 0 0 0 0 0 0 0 0 0 0 0 0 0 0 0 13 56 49 61 159 167 165 179 159
29 66 4 0 0 0 0 0 0 0 0 0 0 0 0 0 0 0 0 0 0 0 0 0 0 0 0 0 0 43 54 36 40
0 0 0 0 0 0 0 0 0 0 0 0 0 0 0 0 0 0 0 0 0 0 0 0 0 0 0 0 0 0 0 0 4
0 0 0 0 0 0 0 0 0 0 0 0 0 0 0 0 0 0 0 0 0 0 0 0 0 0 0 0 0 0 0 0 0
0 0 0 0 0 0 0 0 0 0 0 0 0 0 0 0 0 0 0 0 0 0 0 0 0 0 0 0 0 0 0 0 0
0 0 0 0 0 0 0 0 0 0 0 0 0 0 0 0 0 0 0 0 0 0 0 0 0 0 0 0 0 0 0 0 0
0 0 0 0 0 0 0 0 0 0 0 0 0 0 0 0 0 0 0 0 0 0 0 0 0 0 0 0 0 0 0 0 0
0 0 0 0 0 0 0 0 0 0 0 0 0 0 0 0 0 0 0 0 0 0 0 0 0 0 0 0 0 0 0 0 0
0 0 0 0 0 0 0 0 0 0 0 0 0 0 0 0 0 0 0 0 0 0 0 0 0 0 0 0 0 0 0 0 3
0 0 0 0 0 0 0 0 0 0 0 0 0 0 0 0 0 0 0 0 0 0 0 0 0 0 0 0 0 0 0 1 8

GFSFLT1_con_mucape_003.txt.gz
CAPE
43 50 88 26 0 0 0 0 0 0 1 21 40 9 4 4 0 0 0 0 0 0 7 17 25 13 13 19 31 21 60 89 42
113 128 47 20 0 0 0 0 0 1 0 4 26 88 124 5 0 0 0 0 0 0 6 19 19 12 17 13 19 18 18 30 24
137 106 73 20 3 1 0 8 12 18 7 8 6 79 96 3 0 0 0 0 0 0 1 5 17 13 17 12 16 23 18 25 29
58 218 106 66 38 21 35 62 16 7 26 45 60 127 102 10 0 0 0 0 0 24 23 15 14 24 17 27 26 17 15 18 27
29 198 122 100 92 116 82 39 66 112 121 99 216 170 73 0 0 0 0 0 39 174 169 130 93 69 40 48 36 26 32 18 19
0 20 44 112 176 111 146 213 261 377 263 190 158 39 0 0 0 0 0 5 105 219 299 276 220 187 291 380 211 29 48 69 44
0 0 35 120 182 227 194 262 184 23 0 0 0 0 0 0 0 0 0 21 82 32 122 344 224 208 217 138 116 113 191 118 243
0 2 19 34 59 109 72 6 0 0 0 0 0 0 0 0 0 0 0 0 0 0 2 49 239 387 508 189 127 397 199 188 296
22 57 50 69 103 49 3 0 0 0 0 0 0 0 0 0 0 0 0 0 0 0 0 0 12 223 475 120 354 323 205 125 146
81 83 112 29 9 0 0 0 0 0 0 0 0 0 0 0 0 0 0 0 0 0 0 0 10 0 0 0 40 113 86 95 112
72 12 3 1 0 0 0 0 0 0 0 0 0 0 0 0 0 0 0 0 0 0 0 0 0 0 0 0 0 0 0 0 0
1 1 1 0 0 0 0 0 0 0 0 0 0 0 0 0 0 0 0 0 0 0 0 0 0 0 0 0 0 0 0 0 0
0 0 0 0 0 0 0 0 0 0 0 0 0 0 0 0 0 0 0 0 0 0 0 0 0 0 0 0 0 0 0 0 0
0 0 0 0 0 0 0 0 0 0 0 0 0 0 0 0 0 0 0 0 0 0 0 0 0 0 0 0 0 0 0 0 1
0 0 0 0 0 0 0 0 0 0 0 0 0 0 0 0 0 0 0 0 0 0 0 0 0 0 0 0 0 0 0 0 0
0 0 0 0 0 0 0 0 0 0 0 0 0 0 0 0 0 0 0 0 0 0 0 0 0 0 0 0 0 0 0 0 0
0 0 0 0 0 0 0 0 0 0 0 0 0 0 0 0 0 0 0 0 0 0 0 0 0 0 0 0 0 0 0 0 0
0 0 0 0 0 0 0 0 0 0 0 0 0 0 0 0 0 0 0 0 0 0 0 0 0 0 0 0 0 0 0 0 1
0 0 0 0 0 0 0 0 0 0 0 0 0 0 0 0 0 0 0 0 0 0 0 0 0 0 0 0 0 0 0 0 5
0 0 0 0 0 0 0 0 0 0 0 0 0 0 0 0 0 0 0 0 0 0 0 0 0 0 0 0 0 0 0 0 0

GFSFLT1_con_mucape_009.txt.gz
CAPE
37 18 46 28 0 0 0 0 0 0 0 1 7 16 38 16 1 0 0 0 0 0 0 0 0 6 5 8 1 0 13 15 35
82 41 23 8 0 0 0 5 9 7 5 4 4 0 57 8 4 0 1 0 4 45 31 5 7 16 11 12 9 9 8 14 13
149 96 44 15 0 6 0 11 18 6 6 25 38 45 96 6 6 4 2 0 18 99 128 131 66 35 13 63 29 12 7 5 19
134 140 63 40 35 16 34 53 51 90 120 127 133 106 65 26 12 0 0 0 49 153 257 275 354 284 195 115 161 283 272 80 17
12 100 100 54 36 64 63 155 197 94 44 30 2 0 0 0 0 0 0 0 135 206 258 282 348 432 452 501 424 406 270 257 185
0 0 0 21 53 64 87 40 0 0 0 0 0 0 0 0 0 0 0 2 68 47 6 0 62 222 187 293 398 442 433 469 693
0 0 0 7 0 0 1 0 0 0 0 0 0 0 0 0 0 0 0 0 0 0 0 0 0 13 89 281 242 176 337 380 437
0 0 0 2 6 2 1 0 0 0 0 0 0 0 0 0 0 0 0 0 0 0 0 9 18 0 0 33 93 83 71 110 254
0 8 1 9 5 9 0 0 0 0 0 0 0 0 0 0 0 0 0 0 0 5 0 0 0 0 13 0 0 0 0 0 0
42 11 2 4 0 0 0 0 0 0 0 0 0 0 0 0 0 0 0 0 0 0 0 0 0 0 0 0 0 0 0 0 0
48 12 2 0 0 0 0 0 0 0 0 0 0 0 0 0 0 0 0 0 0 0 0 0 0 0 0 0 0 0 0 0 0
19 0 0 0 0 0 0 0 0 0 0 0 0 0 0 0 0 0 0 0 0 0 0 0 0 0 0 0 0 0 0 0 0
5 2 0 0 0 0 0 0 0 0 0 0 0 0 0 0 0 0 0 0 0 0 0 0 0 0 0 0 0 0 0 0 0
1 0 0 0 0 0 0 0 0 0 0 0 0 0 0 0 0 0 0 0 0 0 0 0 0 0 0 0 0 0 0 0 0
0 0 0 0 0 0 0 0 0 0 0 0 0 0 0 0 0 0 0 0 0 0 0 0 0 0 0 0 0 0 0 0 0
0 0 0 0 0 0 0 0 0 0 0 0 0 0 0 0 0 0 0 0 0 0 0 0 0 0 0 0 0 0 0 0 0
0 0 0 0 0 0 0 0 0 0 0 0 0 0 0 0 0 0 0 0 0 0 0 0 0 0 0 0 0 0 0 0 0
0 0 0 0 0 0 0 0 0 0 0 0 0 0 0 0 0 0 0 0 0 0 0 0 0 0 0 0 0 0 0 0 0
0 0 0 0 0 0 0 0 0 0 0 0 0 0 0 0 0 0 0 0 0 0 0 0 0 0 0 0 0 0 0 0 0
0 0 0 0 0 0 0 0 0 0 0 0 0 0 0 0 0 0 0 0 0 0 0 0 0 0 0 0 0 0 0 0 0

GFSFLT1_con_mucape_012.txt.gz
CAPE
0 0 7 0 0 0 0 0 2 4 3 4 1 16 21 10 10 4 3 0 0 4 3 0 0 25 4 10 3 0 6 39 67
53 13 6 0 0 0 0 4 5 5 0 4 17 17 14 0 12 16 19 19 0 40 76 84 38 27 44 30 8 10 6 1 4
109 35 13 1 0 0 0 15 26 26 58 84 86 71 51 24 56 50 55 15 15 100 201 294 329 197 155 129 110 127 5 10 8
167 130 50 20 34 17 33 66 121 156 154 112 35 3 1 5 19 5 15 0 60 168 220 384 392 504 543 388 339 230 337 380 204
88 141 83 34 31 48 92 132 15 0 0 0 0 0 0 0 0 0 0 1 129 159 177 121 61 208 338 324 500 591 563 606 784
0 0 0 15 48 30 27 0 0 0 0 0 0 0 0 0 0 0 0 0 0 0 0 0 0 3 69 141 168 214 430 567 589
0 0 0 0 0 0 0 0 0 0 0 0 0 0 0 0 0 0 0 0 0 0 0 0 5 0 0 54 118 241 261 302 388
0 1 5 57 1 1 0 0 0 0 0 0 0 0 0 0 0 0 0 0 0 0 13 0 0 0 1 0 0 0 0 0 0
0 37 54 1 0 0 0 0 0 0 0 0 0 0 0 0 0 0 0 0 0 0 0 0 0 0 0 0 0 0 0 0 0
47 0 0 0 0 0 0 0 0 0 0 0 0 0 0 0 0 0 0 0 0 0 0 0 0 0 0 0 0 0 0 0 0
0 1 3 0 0 0 0 0 0 0 0 0 0 0 0 0 0 0 0 0 0 0 0 0 0 0 0 0 0 0 0 0 0
13 10 2 0 0 0 0 0 0 0 0 0 0 0 0 0 0 0 0 0 0 0 0 0 0 0 0 0 0 0 0 0 0
2 0 0 0 0 0 0 0 0 0 0 0 0 0 0 0 0 0 0 0 0 0 0 0 0 0 0 0 0 0 0 0 0
4 0 0 0 0 0 0 0 0 0 0 0 0 0 0 0 0 0 0 0 0 0 0 0 0 0 0 0 0 0 0 0 0
0 0 0 0 0 0 0 0 0 0 0 0 0 0 0 0 0 0 0 0 0 0 0 0 0 0 0 0 0 0 0 0 0
0 0 0 0 0 0 0 0 0 0 0 0 0 0 0 0 0 0 0 0 0 0 0 0 0 0 0 0 0 0 0 0 0
0 0 0 0 0 0 0 0 0 0 0 0 0 0 0 0 0 0 0 0 0 0 0 0 0 0 0 0 0 0 0 0 0
0 0 0 0 0 0 0 0 0 0 0 0 0 0 0 0 0 0 0 0 0 0 0 0 0 0 0 0 0 0 0 0 0
0 0 0 0 0 0 0 0 0 0 0 0 0 0 0 0 0 0 0 0 0 0 0 0 0 0 0 0 0 0 0 0 0
0 0 0 0 0 0 0 0 0 0 0 0 0 0 0 0 0 0 0 0 0 0 0 0 0 0 0 0 0 0 0 0 0

GFSFLT1_con_mucape_015.txt.gz
CAPE
3 0 0 0 0 0 0 1 4 1 1 2 1 0 0 0 13 9 12 3 0 2 14 8 0 0 12 7 5 13 3 16 62
38 1 9 0 0 0 0 2 10 2 0 13 24 12 5 1 24 19 31 53 15 37 56 111 154 64 63 52 82 42 25 16 0
55 17 11 0 1 0 2 10 21 53 108 128 97 36 13 1 11 21 19 15 24 84 111 235 327 352 383 322 238 177 224 116 59
121 55 21 1 0 0 37 124 130 75 37 4 0 0 0 0 0 0 1 0 34 93 74 212 158 128 255 317 378 496 411 346 405
173 212 71 13 14 43 77 0 0 0 0 0 0 0 0 0 0 0 0 0 1 28 29 9 3 5 83 142 144 179 315 518 560
0 1 10 25 14 31 0 0 0 0 0 0 0 0 0 0 0 0 0 0 0 0 0 0 1 40 34 46 158 260 278 296 344
0 0 6 0 3 0 0 0 0 0 0 0 0 0 0 0 0 0 0 0 0 0 13 4 0 11 8 2 0 0 0 0 0
0 0 0 0 0 0 0 0 0 0 0 0 0 0 0 0 0 0 0 0 7 16 0 0 4 0 0 1 0 0 0 0 0
0 0 46 12 0 0 0 0 0 0 0 0 0 0 0 0 0 0 0 0 0 0 0 0 0 0 0 0 0 0 0 0 0
10 5 0 0 0 0 0 0 0 0 0 0 0 0 0 0 0 0 0 0 0 0 0 0 0 0 0 0 0 0 0 0 0
0 0 0 0 0 0 0 0 0 0 0 0 0 0 0 0 0 0 0 0 0 0 0 0 0 0 0 0 0 0 0 0 0
0 0 0 0 0 0 0 0 0 0 0 0 0 0 0 0 0 0 0 0 0 0 0 0 0 0 0 0 0 0 0 0 0
0 0 0 0 0 0 0 0 0 0 0 0 0 0 0 0 0 0 0 0 0 0 0 0 0 0 0 0 0 0 0 0 0
3 1 0 0 0 0 0 0 0 0 0 0 0 0 0 0 0 0 0 0 0 0 0 0 0 0 0 0 0 0 0 0 0
22 0 0 0 0 0 0 0 0 0 0 0 0 0 0 0 0 0 0 0 0 0 0 0 0 0 0 0 0 0 0 0 0
21 0 0 0 0 0 0 0 0 0 0 0 0 0 0 0 0 0 0 0 0 0 0 0 0 0 0 0 0 0 0 0 0
39 0 0 0 0 0 0 0 0 0 0 0 0 0 0 0 0 0 0 0 0 0 0 0 0 0 0 0 0 0 0 0 0
44 1 0 0 0 0 0 0 0 0 0 0 0 0 0 0 0 0 0 0 0 0 0 0 0 0 0 0 0 0 0 0 0
189 7 0 0 0 0 0 0 0 0 0 0 0 0 0 0 0 0 0 0 0 0 0 0 0 0 0 0 0 0 0 0 0
119 0 0 0 0 0 0 0 0 0 0 0 0 0 0 0 0 0 0 0 0 0 0 0 0 0 0 0 0 0 0 0 0

GFSFLT1_con_mucape_018.txt.gz
CAPE
2 0 3 0 0 0 6 6 3 0 0 0 0 0 0 0 1 1 3 0 24 22 4 1 24 1 0 11 13 5 9 4 28
0 0 0 0 0 0 2 13 4 0 2 11 6 2 1 0 3 15 18 31 51 53 33 141 203 219 151 136 91 84 85 45 35
54 4 0 0 0 0 1 0 16 77 68 43 10 2 0 0 1 3 0 8 26 51 20 169 166 157 216 286 298 342 233 188 221
111 40 0 5 0 1 82 57 10 5 0 0 0 0 0 0 0 0 0 0 0 21 32 23 10 10 78 155 145 163 251 391 401
292 199 111 2 10 49 0 0 0 0 0 0 0 0 0 0 0 0 0 0 0 0 0 0 0 60 87 79 169 247 282 321 341
90 30 19 37 17 0 0 0 0 0 0 0 0 0 0 0 0 0 0 0 0 0 4 10 13 37 14 17 9 4 0 0 0
0 0 21 12 0 0 0 0 0 0 0 0 0 0 0 0 0 0 0 0 0 27 5 21 10 2 8 7 0 1 0 0 0
0 0 0 0 0 0 0 0 0 0 0 0 0 0 0 0 0 0 0 11 25 10 23 2 0 1 4 0 0 0 0 1 0
0 0 0 0 0 0 0 0 0 0 0 0 0 0 0 0 0 0 0 0 0 6 0 0 0 0 0 0 0 0 0 0 0
0 2 1 0 0 0 0 0 0 0 0 0 0 0 0 0 0 0 0 0 0 0 0 0 0 0 0 0 0 0 0 0 0
1 8 0 0 0 0 0 0 0 0 0 0 0 0 0 0 0 0 0 0 0 0 0 0 0 0 0 0 0 0 0 0 0
4 1 0 0 0 0 0 0 0 0 0 0 0 0 0 0 0 0 0 0 0 0 0 0 0 0 0 0 0 0 0 0 0
47 0 0 0 0 0 0 0 0 0 0 0 0 0 0 0 0 0 0 0 0 0 0 0 0 0 0 0 0 0 0 0 0
6 0 0 0 0 0 0 0 0 0 0 0 0 0 0 0 0 0 0 0 0 0 0 0 0 0 0 0 0 0 0 0 0
21 0 0 0 0 0 0 0 0 0 0 0 0 0 0 0 0 0 0 0 0 0 0 0 0 0 0 0 0 0 0 0 0
40 4 0 0 0 0 0 0 0 0 0 0 0 0 0 0 0 0 0 0 0 0 0 0 0 0 0 0 0 0 0 0 0
70 6 1 0 0 0 0 0 0 0 0 0 0 0 0 0 0 0 0 0 0 0 0 0 0 0 0 0 0 0 0 0 0
128 77 33 0 0 0 0 0 0 0 0 0 0 0 0 0 0 0 0 0 0 0 0 0 0 0 0 0 0 0 0 0 0
174 84 7 1 0 0 0 0 0 0 0 0 0 0 0 0 0 0 0 0 0 0 0 0 0 0 0 0 0 0 0 0 0
159 211 62 7 0 0 0 0 0 0 0 0 0 0 0 0 0 0 0 0 0 0 0 0 0 0 0 0 0 0 0 0 0

GFSFLT1_con_mucape_021.txt.gz
CAPE
0 0 0 0 0 4 4 2 0 0 0 0 0 0 0 8 5 2 13 4 35 14 3 0 33 42 0 0 3 16 0 0 3
3 0 0 0 0 0 6 4 0 0 1 0 0 0 0 0 2 13 16 14 33 14 4 66 205 177 191 214 215 122 85 70 42
23 0 0 1 0 1 1 1 34 52 15 0 0 0 0 0 0 0 0 3 2 3 4 60 41 20 72 141 155 185 256 273 219
72 10 8 0 0 35 64 41 5 0 0 0 0 0 0 0 0 0 0 0 0 0 0 1 0 84 122 165 225 255 279 298 356
378 212 170 0 10 28 0 0 0 0 0 0 0 0 0 0 0 0 0 0 0 0 0 0 58 70 36 20 20 17 8 9 45
115 46 56 90 57 0 0 0 0 0 0 0 0 0 0 0 0 0 0 0 0 25 22 44 32 24 19 4 5 1 0 0 0
86 25 38 105 50 0 0 0 0 0 0 0 0 0 0 0 0 0 0 0 31 35 29 23 18 25 14 3 1 2 6 5 4
28 0 0 1 0 0 0 0 0 0 0 0 0 0 0 0 0 0 4 7 11 25 15 7 3 3 0 0 0 1 1 0 0
0 0 0 0 0 0 0 0 0 0 0 0 0 0 0 0 0 0 0 0 8 2 0 0 0 0 0 0 0 0 0 0 0
0 0 7 0 0 0 0 0 0 0 0 0 0 0 0 0 0 0 0 0 0 0 0 0 0 0 0 0 0 0 0 0 0
0 4 11 0 0 0 0 0 0 0 0 0 0 0 0 0 0 0 0 0 0 0 0 0 0 0 0 0 0 0 0 0 0
0 3 45 0 0 0 0 0 0 0 0 0 0 0 0 0 0 0 0 0 0 0 0 0 0 0 0 0 0 0 0 0 0
46 54 41 0 0 0 0 0 0 0 0 0 0 0 0 0 0 0 0 0 0 0 0 0 0 0 0 0 0 0 0 0 0
106 75 33 0 0 0 0 0 0 0 0 0 0 0 0 0 0 0 0 0 0 0 0 0 0 0 0 0 0 0 0 0 0
160 128 10 0 0 0 0 0 0 0 0 0 0 0 0 0 0 0 0 0 0 0 0 0 0 0 0 0 0 0 0 0 0
278 97 31 5 0 0 0 0 0 0 0 0 0 0 0 0 0 0 0 0 0 0 0 0 0 0 0 0 0 0 0 0 0
263 113 36 22 1 0 0 0 0 0 0 0 0 0 0 0 0 0 0 0 0 0 0 0 0 0 0 0 0 0 0 0 0
258 117 20 7 1 0 0 0 0 0 0 0 0 0 0 0 0 0 0 0 0 0 0 0 0 0 0 0 0 0 0 0 0
405 117 56 5 3 0 0 0 0 0 0 0 0 0 0 0 0 0 0 0 0 0 0 0 0 0 0 0 0 0 0 0 0
435 130 74 9 5 8 0 0 0 0 0 0 0 0 0 0 0 0 0 0 0 0 0 0 0 0 0 0 0 0 0 0 0

GFSFLT1_con_mucape_024.txt.gz
CAPE
4 0 0 0 2 4 1 0 0 0 0 0 0 0 7 0 0 3 3 9 37 10 0 17 49 56 2 0 0 4 7 5 0
3 0 0 1 4 5 8 0 0 0 0 0 0 0 0 0 0 1 21 31 35 12 2 115 69 61 119 158 153 200 110 81 42
29 0 0 2 1 11 10 11 35 36 0 0 0 0 0 0 0 0 0 5 2 2 9 7 0 63 133 149 176 169 231 254 252
89 27 31 0 7 45 89 86 21 0 0 0 0 0 0 0 0 0 0 0 0 0 0 0 47 50 37 34 53 51 111 175 242
341 210 208 19 95 74 35 9 0 0 0 0 0 0 0 0 0 0 0 0 0 0 0 36 68 56 23 17 8 4 5 4 18
203 91 165 168 187 31 1 0 0 0 0 0 0 0 0 0 0 0 0 0 29 44 58 40 51 36 18 15 7 14 15 14 9
133 113 70 246 221 15 0 0 0 0 0 0 0 0 0 0 0 0 0 26 52 42 34 41 35 26 13 10 8 7 4 2 2
134 78 37 75 4 0 0 0 0 0 0 0 0 0 0 0 0 0 25 26 46 26 18 8 6 1 1 0 0 0 0 0 0
146 55 0 0 0 0 0 0 0 0 0 0 0 0 0 0 0 0 0 10 2 6 0 0 0 0 0 0 0 0 0 0 0
37 0 0 0 0 0 0 0 0 0 0 0 0 0 0 0 0 0 0 0 0 0 0 0 0 0 0 0 0 0 0 0 0
17 0 18 0 0 0 0 0 0 0 0 0 0 0 0 0 0 0 0 0 0 0 0 0 0 0 0 0 0 0 0 0 0
0 0 27 0 0 0 0 0 0 0 0 0 0 0 0 0 0 0 0 0 0 0 0 0 0 0 0 0 0 0 0 0 0
0 15 40 23 21 0 0 0 0 0 0 0 0 0 0 0 0 0 0 0 0 0 0 0 0 0 0 0 0 0 0 0 0
36 12 32 57 28 0 0 0 0 0 0 0 0 0 0 0 0 0 0 0 0 0 0 0 0 0 0 0 0 0 0 0 0
117 58 66 52 14 2 0 0 0 0 0 0 0 0 0 0 0 0 0 0 0 0 0 0 0 0 0 0 0 0 0 0 0
89 60 100 108 0 0 0 0 0 0 0 0 0 0 0 0 0 0 0 0 0 0 0 0 0 0 0 0 0 0 0 0 0
665 139 180 60 0 0 0 0 0 0 0 0 0 0 0 0 0 0 0 0 0 0 0 0 0 0 0 0 0 0 0 0 0
930 591 249 81 0 0 0 0 0 0 0 0 0 0 0 0 0 0 0 0 0 0 0 0 0 0 0 0 0 0 0 0 0
649 249 333 126 0 0 4 0 0 0 0 0 0 0 0 0 0 0 0 0 0 0 0 0 0 0 0 0 0 0 0 0 0
360 446 455 434 41 0 5 2 0 0 0 0 0 0 0 0 0 0 0 0 0 0 0 0 0 0 0 0 0 0 0 0 0

GFSFLT1_con_mucape_027.txt.gz
CAPE
0 0 0 0 2 1 0 0 0 0 0 0 0 4 0 0 0 0 0 0 49 11 0 44 89 90 29 0 0 6 5 5 0
0 0 0 1 4 4 2 0 0 2 2 0 0 0 0 0 0 0 1 22 28 4 4 37 15 57 109 129 147 178 174 124 50
14 0 0 0 3 27 7 7 30 21 0 0 0 0 0 0 0 0 0 0 0 8 1 0 40 127 113 113 126 190 210 236 274
63 23 13 1 35 52 51 119 43 0 0 0 0 0 0 0 0 0 0 0 0 0 0 0 67 29 24 10 7 26 43 72 130
285 183 187 16 84 236 163 63 0 0 0 0 0 0 0 0 0 0 0 0 0 0 2 126 67 25 15 7 11 12 9 9 5
221 103 207 170 279 109 59 0 0 0 0 0 0 0 0 0 0 0 0 1 60 99 64 68 35 21 8 8 8 9 7 10 9
211 136 171 312 340 109 0 0 0 0 0 0 0 0 0 0 0 0 0 43 54 51 43 34 30 20 7 11 7 5 2 1 0
228 163 127 146 137 0 0 0 0 0 0 0 0 0 0 0 0 0 46 41 34 20 14 7 1 2 0 0 0 0 0 0 0
235 152 68 28 7 0 0 0 0 0 0 0 0 0 0 0 0 0 21 7 1 2 0 0 0 0 0 0 0 0 0 0 0
179 126 48 1 0 0 0 0 0 0 0 0 0 0 0 0 0 0 0 0 0 0 0 0 0 0 0 0 0 0 0 0 0
88 122 19 0 0 0 0 0 0 0 0 0 0 0 0 0 0 0 0 0 0 0 0 0 0 0 0 0 0 0 0 0 0
0 56 3 30 0 0 0 0 0 0 0 0 0 0 0 0 0 0 0 0 0 0 0 0 0 0 0 0 0 0 0 0 0
19 14 0 53 17 7 0 0 0 0 0 0 0 0 0 0 0 0 0 0 0 0 0 0 0 0 0 0 0 0 0 0 0
152 68 0 34 16 30 3 0 0 0 0 0 0 0 0 0 0 0 0 0 0 0 0 0 0 0 0 0 0 0 0 0 0
210 137 46 27 18 33 6 0 0 0 0 0 0 0 0 0 0 0 0 0 0 0 0 0 0 0 0 0 0 0 0 0 0
254 276 69 43 48 48 0 0 0 0 0 0 0 0 0 0 0 0 0 0 0 0 0 0 0 0 0 0 0 0 0 0 0
226 316 164 56 203 81 0 0 0 0 0 0 0 0 0 0 0 0 0 0 0 0 0 0 0 0 0 0 0 0 0 0 0
537 401 315 402 98 128 0 0 0 0 0 0 0 0 0 0 0 0 0 0 0 0 0 0 0 0 0 0 0 0 0 0 0
615 630 336 399 252 253 6 0 0 0 0 0 0 0 0 0 0 0 0 0 0 0 0 0 0 0 0 0 0 0 0 0 0
470 433 391 415 274 276 124 3 0 0 0 0 0 0 0 0 0 0 0 0 0 0 0 0 0 0 0 0 0 0 0 0 0

GFSFLT1_con_mucape_030.txt.gz
CAPE
0 0 2 3 1 1 0 0 0 0 2 1 0 0 0 0 0 0 0 4 45 9 2 110 100 124 70 4 5 10 10 3 1
0 0 0 3 5 3 0 1 6 17 16 1 0 0 0 0 0 0 0 5 19 0 27 0 100 139 154 144 175 183 211 174 135
0 0 0 2 10 35 18 35 60 4 0 0 0 0 0 0 0 0 0 0 0 1 0 9 88 58 19 17 14 56 81 158 299
42 14 8 15 57 62 86 160 28 0 0 0 0 0 0 0 0 0 0 0 0 0 0 97 64 32 10 9 8 4 11 7 20
167 160 126 27 101 153 219 69 0 0 0 0 0 0 0 0 0 0 0 0 0 1 104 69 33 23 9 16 7 5 11 13 4
188 92 164 127 267 177 109 1 0 0 0 0 0 0 0 0 0 0 0 28 83 78 48 33 27 12 8 14 6 8 11 11 9
211 115 176 230 298 159 13 0 0 0 0 0 0 0 0 0 0 0 8 54 61 38 28 19 18 5 3 6 4 2 1 1 0
262 153 182 142 163 4 0 0 0 0 0 0 0 0 0 0 0 4 48 33 25 15 10 1 0 0 0 0 0 0 0 0 0
288 187 158 69 73 0 0 0 0 0 0 0 0 0 0 0 0 0 15 3 0 0 0 0 0 0 0 0 0 0 0 0 0
311 186 120 22 15 0 0 0 0 0 0 0 0 0 0 0 0 0 0 0 0 0 0 0 0 0 0 0 0 0 0 0 0
255 171 106 48 2 0 0 0 0 0 0 0 0 0 0 0 0 0 0 0 0 0 0 0 0 0 0 0 0 0 0 0 0
43 104 100 37 0 0 0 0 0 0 0 0 0 0 0 0 0 0 0 0 0 0 0 0 0 0 0 0 0 0 0 0 0
0 29 65 8 0 0 0 0 0 0 0 0 0 0 0 0 0 0 0 0 0 0 0 0 0 0 0 0 0 0 0 0 0
0 0 6 8 1 24 0 0 0 0 0 0 0 0 0 0 0 0 0 0 0 0 0 0 0 0 0 0 0 0 0 0 0
19 88 87 30 17 27 0 9 0 0 0 0 0 0 0 0 0 0 0 0 0 0 0 0 0 0 0 0 0 0 0 0 0
225 206 128 71 30 16 32 12 0 0 0 0 0 0 0 0 0 0 0 0 0 0 0 0 0 0 0 0 0 0 0 0 0
397 270 103 94 35 64 49 174 0 0 0 0 0 0 0 0 0 0 0 0 0 0 0 0 0 0 0 0 0 0 0 0 0
526 419 146 85 214 34 14 124 0 0 0 0 0 0 0 0 0 0 0 0 0 0 0 0 0 0 0 0 0 0 0 0 0
656 643 233 191 186 113 123 141 29 0 0 0 0 0 0 0 0 0 0 0 0 0 0 0 0 0 0 0 0 0 0 0 0
676 630 412 282 239 265 308 217 164 10 3 0 0 0 0 0 0 0 0 0 0 0 0 0 0 0 0 0 0 0 0 0 0

GFSFLT1_con_mucape_033.txt.gz
CAPE
1 3 2 0 0 0 0 0 0 0 2 6 0 0 0 0 0 0 0 31 31 6 50 41 95 174 45 152 13 158 0 0 0
1 1 1 3 1 0 1 8 27 23 5 0 0 0 0 0 0 1 8 4 11 15 0 132 154 128 109 117 179 193 263 343 278
0 1 9 13 19 16 39 61 31 0 0 0 0 0 0 0 0 0 0 0 0 0 0 81 49 13 8 14 13 14 20 59 129
0 11 21 36 103 88 99 83 0 0 0 0 0 0 0 0 0 0 0 0 0 0 42 54 30 10 12 10 17 17 17 13 2
101 77 70 63 133 139 187 11 0 0 0 0 0 0 0 0 0 0 0 0 0 57 62 47 28 17 1 4 9 9 5 4 5
115 55 91 125 256 224 95 0 0 0 0 0 0 0 0 0 0 0 0 99 102 49 26 17 10 9 0 3 9 8 7 8 7
182 83 113 168 245 177 11 0 0 0 0 0 0 0 0 0 0 0 38 61 44 18 4 1 0 0 0 1 1 0 0 0 0
283 226 240 187 77 3 0 0 0 0 0 0 0 0 0 0 0 15 56 30 19 2 0 0 0 0 0 0 0 0 0 0 0
288 244 236 169 68 0 0 0 0 0 0 0 0 0 0 0 0 0 5 3 0 0 0 0 0 0 0 0 0 0 0 0 0
225 202 156 111 9 0 0 0 0 0 0 0 0 0 0 0 0 0 0 0 0 0 0 0 0 0 0 0 0 0 0 0 0
208 202 131 66 0 0 0 0 0 0 0 0 0 0 0 0 0 0 0 0 0 0 0 0 0 0 0 0 0 0 0 0 0
187 212 139 66 24 0 0 0 0 0 0 0 0 0 0 0 0 0 0 0 0 0 0 0 0 0 0 0 0 0 0 0 0
50 87 91 52 44 0 0 0 0 0 0 0 0 0 0 0 0 0 0 0 0 0 0 0 0 0 0 0 0 0 0 0 0
19 1 19 40 41 0 0 0 0 0 0 0 0 0 0 0 0 0 0 0 0 0 0 0 0 0 0 0 0 0 0 0 0
121 2 0 15 22 0 0 0 0 0 0 0 0 0 0 0 0 0 0 0 0 0 0 0 0 0 0 0 0 0 0 0 0
336 57 31 8 58 45 0 0 2 1 0 0 0 0 0 0 0 0 0 0 0 0 0 0 0 0 0 0 0 0 0 0 0
588 154 64 96 107 42 2 4 5 2 0 0 0 0 0 0 0 0 0 0 0 0 0 0 0 0 0 0 0 0 0 0 0
748 458 147 150 146 35 10 4 30 51 0 0 0 0 0 0 0 0 0 0 0 0 0 0 0 0 0 0 0 0 0 0 0
818 719 404 239 215 83 56 36 10 22 13 0 0 0 0 0 0 0 0 0 0 0 0 0 0 0 0 0 0 0 0 0 0
782 766 633 537 384 178 92 67 60 76 81 6 0 0 0 0 0 0 0 0 0 0 0 0 0 0 0 0 0 0 0 0 0

GFSFLT1_con_mucape_036.txt.gz
CAPE
2 4 0 0 0 0 0 0 0 0 7 3 0 0 0 0 1 7 10 32 2 17 1 153 233 187 216 290 14 370 38 106 0
2 1 0 0 0 0 0 3 7 4 0 0 0 0 0 5 4 17 13 22 13 1 127 175 148 121 51 48 64 93 266 556 308
1 2 4 2 2 5 22 53 1 0 0 0 0 0 0 4 12 3 0 0 0 0 83 39 6 15 14 8 12 12 27 30 138
1 24 32 49 59 65 101 5 0 0 0 0 0 0 0 0 0 0 0 0 0 0 115 38 26 18 6 8 5 8 4 0 8
40 99 80 116 157 170 92 0 0 0 0 0 0 0 0 0 0 0 0 0 1 100 52 38 23 8 5 1 8 3 9 7 4
23 18 84 159 178 241 26 0 0 0 0 0 0 0 0 0 0 0 40 118 77 44 21 11 7 1 0 1 7 8 5 3 2
39 24 66 198 268 213 5 0 0 0 0 0 0 0 0 0 0 0 88 36 24 8 2 2 0 0 0 1 2 1 0 0 0
196 121 117 94 68 88 0 0 0 0 0 0 0 0 0 0 0 24 85 32 11 0 0 0 0 0 0 0 0 0 0 0 0
233 221 129 92 83 37 0 0 0 0 0 0 0 0 0 0 0 12 16 2 0 0 0 0 0 0 0 0 0 0 0 0 0
264 235 191 153 90 8 0 0 0 0 0 0 0 0 0 0 0 7 0 0 0 0 0 0 0 0 0 0 0 0 0 0 0
236 219 256 175 139 20 0 0 0 0 0 0 0 0 0 0 0 0 0 0 0 0 0 0 0 0 0 0 0 0 0 0 0
195 279 296 224 155 41 0 0 0 0 0 0 0 0 0 0 0 0 0 0 0 0 0 0 0 0 0 0 0 0 0 0 0
149 233 306 290 146 23 0 0 0 0 0 0 0 0 0 0 0 0 0 0 0 0 0 0 0 0 0 0 0 0 0 0 0
65 135 188 187 126 0 0 0 0 0 0 0 0 0 0 0 0 0 0 0 0 0 0 0 0 0 0 0 0 0 0 0 0
126 49 81 117 83 0 0 0 0 0 0 0 0 0 0 0 0 0 0 0 0 0 0 0 0 0 0 0 0 0 0 0 0
403 172 122 82 48 0 0 0 13 0 0 0 0 0 0 0 0 0 0 0 0 0 0 0 0 0 0 0 0 0 0 0 0
518 450 307 179 54 22 11 60 46 0 0 0 0 0 0 0 0 0 0 0 0 0 0 0 0 0 0 0 0 0 0 0 0
501 466 483 267 125 80 67 110 46 7 0 0 0 0 0 0 0 0 0 0 0 0 0 0 0 0 0 0 0 0 0 0 0
658 400 532 457 209 117 71 156 46 5 1 0 2 0 0 0 0 0 0 0 0 0 0 0 0 0 0 0 0 0 0 0 0
474 333 364 470 515 240 98 232 67 30 16 15 37 17 3 1 0 0 0 0 0 0 0 0 0 0 0 0 0 0 0 0 0

GFSFLT1_con_mucape_039.txt.gz
CAPE
4 8 1 0 0 0 0 0 0 0 5 0 0 0 0 0 10 25 22 21 18 2 157 234 278 210 363 245 302 382 426 351 10
3 0 0 0 0 0 0 1 3 2 0 0 0 0 0 7 9 15 18 3 1 7 220 80 90 84 94 128 96 162 187 476 459
1 0 0 0 0 0 21 8 0 0 0 0 0 0 0 12 9 1 0 0 0 1 34 7 10 14 13 1 0 1 16 74 128
0 1 5 9 17 45 79 0 0 0 0 0 0 0 0 0 0 0 0 0 0 52 53 39 16 12 7 5 4 5 3 1 49
35 71 48 124 101 122 9 0 0 0 0 0 0 0 0 0 0 0 0 0 3 73 45 29 18 4 3 3 8 5 9 8 9
0 7 82 126 151 191 0 0 0 0 0 0 0 0 0 0 0 0 145 85 95 27 10 8 7 3 2 3 4 6 4 2 1
0 0 41 136 283 154 0 0 0 0 0 0 0 0 0 0 0 7 120 31 15 3 0 0 0 0 0 1 1 0 0 0 0
20 41 0 76 90 89 0 0 0 0 0 0 0 0 0 0 0 10 69 18 2 0 0 0 0 0 0 0 0 0 0 0 0
72 51 27 2 128 92 8 0 0 0 0 0 0 0 0 0 2 1 15 11 0 0 0 0 0 0 0 0 0 0 0 0 3
174 109 97 59 39 41 2 0 0 0 0 0 0 0 0 0 0 1 0 0 0 0 0 0 0 0 0 0 0 0 0 0 1
325 214 247 187 112 54 6 0 0 0 0 0 0 0 0 0 0 0 0 0 0 0 0 0 0 0 0 0 0 0 0 0 0
106 161 230 219 179 97 19 0 0 0 0 0 0 0 0 0 0 0 0 0 0 0 0 0 0 0 0 0 0 0 0 0 0
114 177 278 177 466 160 55 0 0 0 0 0 0 0 0 0 0 0 0 0 0 0 0 0 0 0 0 0 0 0 0 0 0
108 172 280 226 208 142 86 0 0 0 0 0 0 0 0 0 0 0 0 0 0 0 0 0 0 0 0 0 0 0 0 0 0
293 162 169 264 303 102 55 0 0 0 0 0 0 0 0 0 0 0 0 0 0 0 0 0 0 0 0 0 0 0 0 0 0
591 405 218 222 236 185 42 0 0 0 0 0 0 0 0 0 0 0 0 0 0 0 0 0 0 0 0 0 0 0 0 0 0
911 671 458 256 245 196 53 18 0 0 0 4 0 0 0 0 0 0 0 0 0 0 0 0 0 0 0 0 0 0 0 0 0
919 863 707 507 324 256 129 65 33 26 12 53 1 0 0 0 0 0 0 0 0 0 0 0 0 0 0 0 0 0 0 0 0
1012 834 732 622 404 272 206 88 78 52 57 68 19 2 0 0 0 0 0 0 0 0 0 0 0 0 0 0 0 0 0 0 0
618 841 948 597 440 340 192 139 112 89 74 150 43 9 1 3 0 0 0 0 0 0 0 0 0 0 0 0 0 0 0 0 0

GFSFLT1_con_mucape_042.txt.gz
CAPE
18 12 2 0 0 0 0 0 0 2 0 0 0 0 0 7 7 10 26 0 5 133 192 187 179 203 282 283 293 464 460 161 181
10 1 0 0 0 0 0 2 3 0 0 0 0 0 0 0 3 0 0 0 1 104 94 107 108 43 34 42 42 217 342 429 474
1 1 0 0 0 3 17 2 0 0 0 0 0 0 0 1 0 0 0 0 0 20 12 5 4 8 7 1 0 6 25 54 118
0 0 0 0 10 44 10 0 0 0 0 0 0 0 0 0 0 0 0 0 0 50 27 10 5 0 5 2 3 7 7 1 14
3 27 45 59 49 108 0 0 0 0 0 0 0 0 0 0 0 0 0 0 42 65 23 7 3 2 2 3 4 8 6 8 7
0 0 24 103 217 109 0 0 0 0 0 0 0 0 0 0 0 0 96 88 82 22 12 3 5 2 2 3 4 3 3 2 1
0 0 45 107 211 97 0 0 0 0 0 0 0 0 0 0 0 8 133 49 24 5 0 0 0 1 0 1 1 2 1 1 1
0 0 1 56 96 40 0 0 0 0 0 0 0 0 0 0 0 11 80 13 4 0 0 0 0 2 0 0 0 0 0 2 3
20 19 2 25 73 69 18 0 0 0 0 0 0 0 0 0 0 0 0 14 0 0 0 0 0 1 0 0 0 0 0 2 0
47 25 29 16 56 42 60 0 0 0 0 0 0 0 0 0 0 0 0 0 0 0 0 0 0 0 0 0 0 0 0 1 0
62 54 49 41 32 24 22 8 0 0 0 0 0 0 0 0 0 0 0 0 0 0 0 0 0 0 0 0 0 0 0 0 0
109 71 81 67 46 52 30 8 0 0 0 0 0 0 0 0 0 0 0 0 0 0 0 0 0 0 0 0 0 0 0 0 0
50 80 70 116 100 62 61 14 0 0 0 0 0 0 0 0 0 0 0 0 0 0 0 0 0 0 0 0 0 0 0 0 0
46 41 54 127 121 88 100 109 13 0 0 0 0 0 0 0 0 0 0 0 0 0 0 0 0 0 0 0 0 0 0 0 0
218 109 73 136 112 117 76 67 48 2 0 0 0 0 0 0 0 0 0 0 0 0 0 0 0 0 0 0 0 0 0 0 0
427 249 210 91 142 144 121 67 55 0 0 0 0 0 0 0 0 0 0 0 0 0 0 0 0 0 0 0 0 0 0 0 0
708 457 280 231 116 193 208 88 81 56 7 0 1 0 0 0 0 0 0 0 0 0 0 0 0 0 0 0 0 0 0 0 0
846 736 515 359 254 174 167 170 146 109 40 14 16 7 1 24 1 0 0 0 0 0 0 0 0 0 0 0 0 0 0 0 0
488 704 797 852 461 202 168 187 197 169 120 54 38 42 17 40 10 1 5 8 0 0 0 0 0 0 0 0 0 0 0 0 0
699 578 773 617 746 623 270 271 206 194 194 144 90 62 44 80 44 21 6 0 6 6 0 0 0 0 0 0 0 0 0 0 0

GFSFLT1_con_mucape_045.txt.gz
CAPE
51 27 5 5 2 0 0 1 3 0 0 0 0 0 1 2 5 0 0 0 115 178 157 137 210 191 184 160 428 433 310 320 433
9 5 0 0 0 0 0 2 1 0 0 0 0 0 0 0 0 0 0 0 72 111 98 64 38 17 29 46 104 193 334 351 433
3 1 0 0 0 2 1 0 0 0 0 0 0 0 0 0 0 0 0 0 16 17 11 2 0 2 5 1 7 13 38 52 81
2 0 0 0 3 38 0 0 0 0 0 0 0 0 0 0 0 0 0 0 25 38 13 8 7 4 3 5 8 3 5 4 2
25 50 41 57 74 48 0 0 0 0 0 0 0 0 0 0 0 0 0 0 92 35 18 8 2 2 3 4 5 8 9 11 8
10 0 74 140 193 22 0 0 0 0 0 0 0 0 0 0 0 0 54 130 88 23 12 4 1 1 2 2 4 5 4 3 5
0 0 35 172 196 64 0 0 0 0 0 0 0 0 0 0 0 71 280 132 42 10 0 0 0 0 0 0 1 1 1 3 4
0 11 25 48 123 48 8 0 0 0 0 0 0 0 0 0 5 56 156 29 8 0 0 0 0 0 0 0 0 0 3 2 0
12 9 10 29 76 47 21 6 0 0 0 0 0 0 0 0 1 29 57 26 1 0 0 0 0 0 0 0 0 1 2 1 0
15 25 15 19 55 64 38 18 0 0 0 0 0 0 0 0 0 0 0 0 0 0 0 0 0 1 0 0 1 0 2 0 0
3 35 36 35 43 50 76 60 16 0 0 0 0 0 0 0 0 0 0 0 0 0 0 0 0 2 0 0 0 0 0 0 0
16 20 49 42 38 30 25 25 13 4 0 0 0 0 0 0 0 0 0 0 0 0 0 0 0 3 0 0 0 0 0 0 0
43 75 102 78 19 59 51 23 22 28 1 0 0 0 0 0 0 0 0 0 0 0 0 0 0 0 2 0 0 0 0 0 0
58 39 107 109 118 102 99 56 45 26 19 0 0 0 0 0 0 0 0 0 0 0 0 0 0 0 0 0 0 0 0 0 0
277 197 104 52 103 132 127 101 47 35 33 33 0 0 0 0 0 0 0 0 0 0 0 0 0 0 0 0 0 0 0 0 0
363 341 288 156 106 168 171 146 92 75 53 61 14 0 0 0 0 0 0 0 0 0 0 0 0 0 0 0 0 0 0 0 0
421 259 401 345 213 154 195 206 188 130 102 106 62 3 0 0 0 0 0 5 0 0 0 0 0 0 0 0 0 0 0 0 0
205 253 251 431 443 278 204 234 218 168 141 137 99 21 3 2 11 7 18 47 6 1 6 9 0 0 0 0 0 0 0 0 0
287 217 201 318 393 552 344 265 255 269 193 140 94 70 41 35 10 21 31 57 30 19 22 18 0 0 0 0 0 0 0 0 0
505 421 315 303 396 372 597 558 451 185 205 213 152 75 75 53 51 49 45 53 52 55 30 7 0 2 0 0 0 0 0 0 0

GFSFLT1_con_mucape_048.txt.gz
CAPE
96 63 19 7 1 0 0 2 0 0 0 0 0 0 0 0 0 0 0 5 161 150 138 183 164 142 119 312 367 288 296 398 476
26 4 3 0 0 0 1 1 0 0 0 0 0 0 0 0 0 0 0 9 121 94 27 40 41 2 38 57 168 221 232 333 384
39 20 0 0 0 1 1 0 0 0 0 0 0 0 0 0 0 0 0 6 11 3 10 0 0 2 4 4 10 59 57 86 137
25 20 0 0 2 22 0 0 0 0 0 0 0 0 0 0 0 0 0 2 32 28 14 5 3 2 3 4 1 10 15 12 9
38 73 74 64 116 64 0 0 0 0 0 0 0 0 0 0 0 0 0 2 90 37 19 2 5 1 1 3 5 3 2 2 4
28 15 61 128 194 52 0 0 0 0 0 0 0 0 0 0 0 0 0 224 141 25 12 6 1 1 1 2 4 4 6 5 6
29 22 56 124 187 75 3 0 0 0 0 0 0 0 0 0 0 0 185 264 120 15 1 2 0 0 0 2 3 2 4 5 5
12 16 45 96 130 60 15 0 0 0 0 0 0 0 0 0 6 119 321 180 48 1 0 0 0 0 0 1 1 4 2 1 1
8 7 33 73 82 63 33 14 0 0 0 0 0 0 0 0 13 112 130 149 31 3 0 0 1 0 0 0 1 5 1 0 1
4 14 15 16 41 51 35 27 12 0 0 0 0 0 0 0 1 43 45 75 39 0 0 0 2 0 0 1 1 3 0 0 0
0 1 18 24 5 20 18 20 25 7 0 0 0 0 0 0 1 17 5 25 47 0 0 0 1 1 0 2 1 2 0 0 0
19 0 0 19 23 25 18 30 41 37 22 18 0 0 0 0 0 6 3 0 0 0 0 0 0 0 0 3 1 0 0 0 0
17 0 0 0 31 56 24 20 38 39 13 28 24 6 0 0 0 0 0 0 0 0 0 0 0 0 0 0 0 0 0 0 0
62 32 9 7 55 84 43 42 70 69 18 16 24 9 0 0 0 0 0 0 0 0 0 0 0 0 0 0 0 0 0 0 0
142 162 217 135 74 84 86 95 108 130 105 35 24 3 18 0 0 0 0 0 0 0 0 0 0 0 0 0 0 0 0 0 0
193 153 218 227 186 184 149 132 135 144 162 100 31 29 0 8 0 0 0 0 0 0 0 10 0 0 0 0 0 0 0 0 0
310 205 128 193 217 165 233 195 163 200 189 149 84 66 2 18 57 12 0 1 1 8 25 37 1 0 1 0 0 0 0 0 0
329 203 134 143 186 188 116 259 252 218 211 257 138 35 3 6 11 18 8 16 19 30 38 44 20 2 21 8 0 0 0 0 0
279 275 191 135 86 103 201 288 291 272 183 190 218 156 64 34 6 7 34 36 30 34 38 43 46 46 41 23 0 0 0 0 0
0 60 286 250 104 88 140 204 207 218 290 357 135 20 79 147 117 22 39 62 64 32 12 17 28 49 27 7 0 0 0 0 0

GFSFLT1_con_mucape_051.txt.gz
CAPE
433 113 15 0 0 0 0 0 0 0 0 0 0 0 0 0 0 0 21 66 156 182 175 163 128 88 283 308 189 285 429 562 112
142 74 3 0 0 0 0 0 0 0 0 0 0 0 0 0 0 0 0 64 80 71 60 58 40 19 61 66 232 274 328 569 289
92 63 24 0 0 0 1 0 0 0 0 0 0 0 0 0 0 0 0 65 22 0 6 0 0 0 4 2 23 69 83 211 389
68 63 44 13 2 1 0 0 0 0 0 0 0 0 0 0 0 0 0 9 8 12 3 3 1 1 2 3 0 0 16 6 16
62 70 70 42 50 43 3 0 0 0 0 0 0 0 0 0 0 0 0 0 126 30 8 6 4 2 1 2 1 0 6 2 3
32 18 31 96 154 72 8 0 0 0 0 0 0 0 0 0 0 0 0 13 168 29 9 2 1 1 1 2 2 4 5 3 4
18 15 37 107 167 95 23 3 0 0 0 0 0 0 0 0 0 0 0 236 215 34 0 0 0 0 0 2 1 3 4 6 5
13 15 51 63 96 78 30 6 0 0 0 0 0 0 0 0 0 12 156 407 144 30 1 0 0 0 0 1 1 3 2 2 2
0 4 18 49 82 89 40 22 1 0 0 0 0 0 0 0 0 63 226 325 154 46 2 0 0 0 0 1 1 1 0 1 2
0 0 0 18 61 69 41 22 20 10 0 0 0 0 0 0 0 49 151 145 176 80 0 0 0 0 0 0 1 2 0 1 2
0 0 0 0 13 20 27 17 6 10 1 0 0 0 0 0 0 11 67 62 140 100 1 1 2 0 0 0 0 2 2 0 2
17 0 0 0 11 14 16 0 0 0 9 7 0 1 0 0 0 0 17 45 42 79 18 10 3 0 0 0 0 4 4 0 0
19 41 28 0 0 0 18 28 4 0 0 19 1 0 3 1 0 0 1 21 22 5 87 94 9 7 0 0 0 0 6 0 0
103 99 69 17 7 0 0 23 36 17 4 26 59 31 15 3 0 0 0 0 7 0 0 17 29 18 0 0 0 0 0 0 0
99 146 155 96 112 125 59 19 30 24 76 73 70 80 16 11 0 0 4 3 0 0 0 0 0 0 14 0 0 0 0 0 0
242 238 215 178 94 114 155 152 131 124 119 131 98 95 56 0 11 25 22 57 49 2 0 7 18 8 0 10 0 0 0 2 1
309 244 173 155 115 104 128 183 166 157 152 111 101 26 0 0 21 35 46 27 53 17 17 29 40 51 42 33 0 3 0 0 0
425 319 283 166 141 117 126 167 202 179 130 171 98 34 2 0 0 1 0 3 18 17 28 30 36 40 31 39 21 5 20 0 0
19 109 183 225 223 150 101 67 64 120 146 165 226 123 87 55 6 0 1 6 43 33 38 32 28 21 22 31 67 21 25 6 0
0 0 0 0 153 213 76 52 53 77 132 44 95 142 119 113 35 31 2 24 53 42 38 27 31 21 38 55 50 53 9 3 0

GFSFLT1_con_mucape_054.txt.gz
CAPE
322 90 0 0 0 0 1 1 0 0 0 0 0 0 0 0 0 0 47 96 232 218 187 145 132 123 337 298 233 336 586 493 0
226 86 0 0 0 0 0 0 0 0 0 0 0 0 0 0 0 0 17 72 123 98 56 28 19 6 67 68 181 226 532 459 90
176 86 29 0 0 0 0 0 0 0 0 0 0 0 0 0 0 0 0 9 0 2 1 3 2 1 2 2 8 21 85 374 500
128 96 57 29 0 1 0 0 0 0 0 0 0 0 0 0 0 0 0 0 1 6 4 4 1 1 1 1 0 0 8 23 37
114 74 65 53 46 45 21 0 0 0 0 0 0 0 0 0 0 0 0 0 117 13 3 3 2 0 0 1 0 0 3 11 3
32 26 39 84 114 78 25 9 0 0 0 0 0 0 0 0 0 0 0 0 221 70 1 0 0 0 0 0 1 3 4 2 3
26 22 22 62 136 77 22 8 1 0 0 0 0 0 0 0 0 0 0 10 339 85 0 0 0 0 0 0 0 3 4 5 6
11 8 21 36 64 76 29 5 0 0 0 0 0 0 0 0 0 0 34 75 362 69 17 0 0 0 0 0 0 1 2 1 1
0 0 4 21 27 49 36 13 6 0 0 0 0 0 0 0 0 0 35 241 253 92 24 0 0 0 0 0 0 0 0 0 2
0 0 0 0 13 30 31 12 4 8 0 0 0 0 0 0 0 0 36 192 281 137 76 0 0 0 0 0 0 0 0 0 1
0 0 0 0 0 1 11 1 0 0 0 0 0 0 0 0 0 0 0 116 129 232 82 17 3 6 0 0 0 0 0 2 3
0 0 0 0 0 0 0 0 10 0 0 0 0 0 0 0 0 0 0 11 60 111 92 44 27 10 4 0 0 0 0 6 5
4 11 28 32 3 0 0 0 2 27 19 0 0 0 2 3 9 2 0 0 3 37 144 184 84 34 8 7 0 0 0 0 6
17 30 53 59 40 23 42 40 20 12 27 33 22 27 40 67 62 45 24 12 12 7 17 25 72 116 15 12 15 0 0 0 0
80 104 107 109 143 131 98 107 115 115 93 50 46 61 73 64 53 49 36 29 33 19 37 13 0 0 92 4 10 0 0 0 0
229 280 274 205 205 192 173 142 115 105 122 84 28 38 61 35 66 144 121 88 65 64 46 42 10 0 11 94 3 0 6 0 0
311 257 319 283 166 169 129 127 92 68 92 95 69 63 0 0 0 0 0 1 20 28 22 16 7 8 6 5 56 35 35 24 3
547 495 445 406 253 153 151 106 123 64 43 89 82 32 9 4 1 1 0 7 0 4 36 18 29 17 16 14 16 40 60 32 55
0 1 11 70 127 174 215 215 150 97 50 11 17 33 43 38 22 20 12 7 0 1 1 11 32 16 31 27 67 78 54 65 27
0 0 0 0 0 0 13 156 130 80 48 38 46 115 23 6 48 22 9 6 6 2 5 2 5 32 27 0 30 104 84 14 11

GFSFLT1_con_mucape_057.txt.gz
CAPE
276 5 0 0 1 0 0 1 0 0 0 0 0 0 0 0 0 56 110 182 206 158 94 97 79 124 233 282 288 463 455 0 0
240 20 0 0 0 1 0 0 0 0 0 0 0 0 0 0 0 0 124 129 69 12 9 6 1 0 0 12 69 122 377 250 202
125 55 21 0 0 3 1 0 0 0 0 0 0 0 0 0 0 0 28 37 0 1 5 6 4 2 2 2 1 8 28 237 398
157 104 50 23 7 27 26 0 0 0 0 0 0 0 0 0 0 0 0 0 8 0 0 1 1 0 0 0 0 0 0 2 12
147 51 74 39 30 32 13 0 0 0 0 0 0 0 0 0 0 0 0 0 96 6 0 0 0 0 0 0 0 0 0 1 5
52 29 30 59 66 51 15 0 0 0 0 0 0 0 0 0 0 0 0 0 154 44 0 0 0 0 0 0 0 1 1 2 1
26 20 17 50 102 67 17 6 0 0 0 0 0 0 0 0 0 0 0 0 86 77 3 0 0 0 0 0 0 1 2 4 4
22 16 25 44 42 83 28 3 0 0 0 0 0 0 0 0 0 0 0 32 181 76 20 2 0 0 0 0 0 0 0 1 0
0 0 7 24 39 57 46 12 0 0 0 0 0 0 0 0 0 0 0 46 244 117 25 9 0 0 0 0 0 0 0 0 2
0 0 0 2 13 19 28 12 0 0 0 0 0 0 0 0 0 0 0 7 287 295 82 56 2 0 0 0 0 0 0 0 1
0 0 0 0 0 0 3 0 0 0 0 0 0 0 0 0 0 0 0 0 79 211 153 86 19 11 6 3 0 0 0 0 1
0 0 0 0 0 0 0 0 0 0 0 0 0 0 0 0 0 0 0 0 0 62 189 121 65 24 11 11 3 0 0 0 0
0 0 0 0 0 0 0 0 0 0 0 0 0 8 8 13 23 42 45 22 0 0 71 222 188 111 62 15 16 1 0 0 0
0 0 15 28 25 17 9 10 14 30 31 37 42 37 46 53 48 52 55 39 29 14 4 27 126 262 133 68 22 23 0 0 0
0 0 63 67 48 52 95 134 136 88 91 55 42 56 59 54 56 98 121 119 85 59 20 17 20 3 159 103 60 41 0 0 1
149 157 177 183 208 198 143 125 87 75 53 47 20 0 0 0 40 8 0 28 63 57 28 6 0 0 4 201 140 76 64 38 2
292 349 350 255 253 291 241 165 137 90 110 57 39 4 0 0 0 0 0 0 0 0 0 0 2 15 0 0 150 196 102 91 90
375 428 415 390 345 314 340 295 146 104 82 115 49 16 4 2 2 3 2 3 2 0 0 0 0 0 0 10 0 4 161 104 37
23 19 7 284 59 78 258 155 175 157 85 57 4 8 7 22 31 10 6 11 2 7 1 1 1 3 7 17 8 11 10 83 121
0 0 0 0 1 4 5 4 106 20 100 144 26 9 35 23 32 18 9 0 9 2 3 0 4 4 4 4 5 1 22 0 90

GFSFLT1_con_mucape_060.txt.gz
CAPE
77 0 0 1 1 3 2 1 0 0 0 0 0 0 0 0 6 22 61 70 51 37 5 1 3 20 37 84 200 323 10 0 0
84 0 0 2 2 0 2 2 0 0 0 0 0 0 0 0 0 1 7 12 0 0 0 4 0 0 0 0 2 78 344 376 393
124 54 7 0 23 1 0 0 0 0 0 0 37 0 0 0 0 0 0 0 1 0 1 0 0 0 0 0 0 0 2 67 261
157 90 52 10 28 31 5 0 0 0 0 0 17 0 0 0 0 0 0 2 9 0 0 0 0 0 0 0 0 0 0 0 0
176 80 80 41 42 41 5 0 0 0 0 0 0 0 0 0 0 0 0 0 80 0 0 0 0 0 0 0 0 0 0 1 2
46 41 38 58 46 33 7 0 0 0 0 0 0 0 0 0 0 0 0 0 61 56 1 0 0 0 0 0 0 0 1 2 4
8 28 16 45 75 46 6 0 0 0 0 0 0 0 0 0 0 0 0 0 13 199 35 5 0 0 0 0 0 0 0 0 4
0 2 7 31 21 47 21 9 0 0 0 0 0 0 0 0 0 0 0 0 30 172 99 10 0 0 0 0 0 0 0 0 0
0 0 0 3 3 8 27 13 6 0 0 0 0 0 0 0 0 0 0 0 69 233 96 16 0 0 0 0 0 0 0 0 0
0 0 0 0 0 0 0 6 0 0 0 0 0 0 0 0 0 0 0 0 25 418 298 87 22 0 0 0 0 0 0 0 0
24 0 0 0 0 0 0 18 20 10 0 0 0 0 0 0 0 0 0 0 0 145 374 210 121 19 4 3 4 0 0 0 0
35 19 0 0 0 0 0 0 2 16 17 17 0 0 0 0 0 0 0 0 0 1 212 304 180 52 18 21 12 0 0 0 0
59 37 20 0 0 0 1 4 22 36 31 39 52 29 5 4 3 19 32 41 26 1 10 212 283 191 146 86 37 22 3 0 0
70 95 84 68 57 50 54 61 60 126 133 109 62 51 48 58 42 55 53 68 69 57 43 11 71 259 273 198 138 47 36 6 0
162 201 192 146 149 159 159 127 170 175 174 74 49 58 83 97 64 68 49 27 9 20 70 41 21 6 133 251 211 132 69 46 0
163 238 267 297 288 246 207 230 181 175 159 59 72 134 53 30 26 26 7 0 0 0 0 0 0 0 37 135 231 233 176 122 121
279 336 406 390 341 312 281 279 183 122 135 91 78 32 2 10 0 0 0 0 0 0 0 0 0 0 0 0 67 212 292 185 176
337 331 320 323 348 353 418 298 213 235 179 132 94 74 19 17 10 0 0 0 0 1 4 0 2 2 0 1 3 5 58 212 251
32 42 43 102 100 407 275 182 202 176 124 54 150 118 67 32 18 7 0 0 0 2 5 2 1 2 2 4 2 5 13 15 93
0 0 0 0 0 0 3 2 3 7 6 19 7 7 22 11 19 16 18 11 3 5 2 3 2 2 0 0 1 6 3 4 4

GFSFLT1_con_mucape_063.txt.gz
CAPE
0 0 3 4 5 6 5 4 2 0 0 1 0 0 0 0 3 10 56 8 7 2 1 1 0 0 0 3 77 350 226 147 237
0 0 2 2 4 6 5 2 0 0 0 0 0 0 0 0 0 0 2 0 0 1 2 1 0 0 0 0 1 11 154 333 344
46 0 0 2 1 0 0 0 0 0 0 0 0 0 0 0 0 0 0 0 0 0 0 0 0 0 0 0 0 0 0 2 50
101 53 19 18 37 15 0 0 0 0 0 24 0 0 0 0 0 0 0 25 0 0 0 0 0 0 0 0 0 0 0 0 0
176 93 66 30 46 29 4 0 0 0 0 0 0 0 0 0 0 0 0 0 28 0 0 0 0 0 0 0 0 0 0 0 0
22 46 54 51 38 25 3 0 0 0 0 0 0 0 0 0 0 0 0 0 3 54 13 0 0 0 0 0 0 0 2 1 1
10 25 15 36 51 32 5 0 0 0 0 0 0 0 0 0 0 0 0 0 0 51 100 33 0 0 0 0 0 0 1 1 1
0 0 0 6 20 14 2 0 0 0 0 0 0 0 0 0 0 0 0 0 2 145 32 32 0 0 0 0 0 0 0 0 0
0 0 0 0 0 0 10 9 0 0 0 0 0 0 0 0 0 0 0 0 0 166 67 9 0 0 0 0 0 0 0 0 0
16 0 0 0 0 0 0 0 0 0 0 0 0 0 0 0 0 0 0 0 0 34 373 137 47 0 0 0 0 0 0 0 0
33 0 0 0 0 0 0 0 15 13 1 0 0 0 0 0 0 0 0 0 0 0 186 377 138 80 14 10 5 1 0 0 0
37 9 0 0 0 0 0 0 0 17 20 19 16 4 1 0 0 0 0 0 0 0 0 88 153 118 76 44 27 9 6 0 0
102 50 41 43 39 11 10 4 25 39 35 36 31 25 26 30 35 42 28 0 0 0 0 3 78 121 126 116 79 55 1 0 0
193 219 183 154 175 153 132 116 129 129 124 127 142 145 154 135 113 98 121 82 23 0 0 0 35 179 262 147 164 158 129 17 0
264 276 276 278 299 342 585 410 316 279 294 271 147 197 171 180 201 123 38 45 81 6 0 0 0 4 35 123 205 166 181 159 53
415 434 381 589 364 395 532 273 466 230 391 212 198 165 151 151 75 11 0 6 1 0 0 0 0 0 0 102 113 238 239 206 212
447 444 390 564 537 523 549 644 266 249 310 137 155 68 2 0 55 1 0 0 0 0 0 0 0 0 0 1 59 99 228 265 254
610 531 1055 835 873 772 550 440 394 237 228 343 58 69 33 26 10 8 0 0 0 0 0 1 3 5 6 2 4 3 5 19 212
209 104 100 171 104 102 109 136 115 283 45 31 20 46 56 61 23 24 3 0 0 0 0 0 7 5 1 0 3 1 6 7 10
0 0 0 0 0 0 0 1 4 9 4 23 19 7 21 14 25 32 16 41 8 0 0 0 0 0 0 0 0 0 0 0 6

GFSFLT1_con_mucape_066.txt.gz
CAPE
1 3 5 8 10 8 4 1 0 0 0 0 0 0 0 0 1 0 0 0 1 3 0 0 0 0 0 3 8 240 326 362 366
0 3 2 2 2 2 1 0 0 0 0 0 0 0 0 0 0 0 0 0 0 0 0 0 0 0 0 0 2 6 8 117 199
0 1 2 0 0 0 0 0 0 0 4 11 0 0 0 0 0 0 0 9 0 0 0 0 0 0 0 0 0 0 0 2 6
53 0 9 27 0 0 0 0 0 0 2 14 0 0 0 0 0 0 0 41 5 0 0 0 0 0 0 0 0 0 0 0 1
130 68 44 38 35 14 0 0 0 0 0 0 0 0 0 0 0 0 0 1 37 0 0 0 0 0 0 0 0 0 0 1 3
10 39 43 58 42 13 4 0 0 0 0 0 0 0 0 0 0 0 0 0 2 52 16 23 0 0 0 0 0 0 0 0 3
37 30 37 62 62 28 8 0 0 0 0 0 0 0 0 0 0 0 0 0 0 21 27 3 5 0 0 0 0 0 0 0 0
1 0 1 13 32 7 4 1 0 0 0 0 0 0 0 0 0 0 0 0 0 13 41 0 0 0 0 0 0 0 0 0 0
0 0 0 0 0 0 4 0 0 0 0 0 0 0 0 0 0 0 0 0 0 36 49 21 0 0 0 0 0 0 0 0 0
0 0 0 0 0 0 0 0 0 0 0 0 0 0 0 0 0 0 0 0 0 0 214 204 47 0 0 0 0 0 0 0 0
18 0 0 0 0 0 0 0 0 0 0 0 0 0 0 0 0 0 0 0 0 0 0 310 366 135 8 2 2 0 0 0 0
25 0 0 0 0 0 0 0 0 0 0 0 0 0 0 0 0 0 0 0 0 0 0 0 49 76 152 65 41 0 0 0 0
28 3 0 0 0 0 0 0 0 0 0 0 0 0 4 4 0 0 2 0 0 0 0 0 0 54 90 149 138 139 10 0 0
79 143 70 68 88 71 42 30 49 32 5 5 170 5 59 53 38 32 47 42 32 26 10 0 0 64 85 85 144 167 166 65 2
196 201 233 233 373 428 361 209 207 448 244 379 154 35 31 66 46 52 68 50 6 9 6 7 0 0 16 33 70 90 185 202 131
263 305 303 490 732 486 476 398 289 151 115 51 31 39 54 67 69 65 29 0 0 0 0 0 0 0 4 53 71 79 115 207 146
405 394 374 609 298 699 512 491 252 133 105 64 49 15 12 6 0 26 18 5 10 9 0 0 0 0 1 4 34 75 103 121 189
516 530 854 633 450 931 625 430 246 165 127 91 57 47 24 16 2 27 21 4 0 0 0 0 1 9 4 5 3 0 3 4 3
473 388 281 220 95 72 53 23 15 20 18 36 78 67 81 53 6 8 10 9 1 3 0 3 3 2 1 2 2 6 1 3 3
0 0 0 0 0 0 0 0 0 0 0 0 3 20 20 25 26 15 1 6 32 18 14 6 4 4 0 0 0 0 0 0 0

GFSFLT1_con_mucape_069.txt.gz
CAPE
4 5 10 19 16 8 3 0 0 0 0 0 0 0 0 0 0 0 0 0 1 0 0 0 0 0 1 3 7 43 187 232 322
4 6 7 8 8 4 1 0 0 0 0 0 0 0 0 0 0 0 0 0 0 0 0 0 0 0 0 1 3 5 5 50 95
1 2 4 4 3 1 0 0 0 24 36 0 0 0 0 0 0 0 0 22 3 7 0 0 0 0 0 0 0 0 2 4 4
0 7 0 0 0 0 0 0 0 1 30 1 0 0 0 0 0 0 5 26 12 5 0 0 0 0 0 0 0 0 0 0 2
56 32 59 26 11 9 7 7 0 0 0 0 0 0 0 0 0 0 0 38 16 2 0 0 0 0 0 0 0 1 1 1 2
0 0 26 50 29 14 5 0 0 0 0 0 0 0 0 0 0 0 0 0 0 13 0 0 0 0 0 0 0 0 0 0 2
0 13 11 40 33 16 9 0 0 0 0 0 0 0 0 0 0 0 0 0 0 0 3 0 0 0 0 0 0 0 0 0 0
21 0 1 0 0 0 0 0 0 0 0 0 0 0 0 0 0 0 0 0 0 0 111 0 0 0 0 0 0 0 0 0 0
0 0 0 0 0 0 0 0 0 0 0 0 0 0 0 0 0 0 0 0 0 0 52 15 0 0 0 0 0 0 0 0 0
0 0 0 0 0 0 0 0 0 0 0 0 0 0 0 0 0 0 0 0 0 0 13 150 77 4 0 0 0 0 0 0 0
0 0 0 0 0 0 0 0 0 0 0 0 0 0 0 0 0 0 0 0 0 0 0 6 179 180 41 1 0 0 0 0 0
17 0 0 0 0 0 0 0 0 0 0 0 0 0 0 0 0 0 0 0 0 0 18 0 5 89 160 137 133 13 0 0 0
26 1 0 0 0 0 0 0 0 0 0 0 0 2 9 6 10 12 6 26 38 17 19 10 6 23 94 129 141 132 112 19 0
44 43 6 0 16 24 14 15 5 7 4 101 8 15 16 14 20 27 48 69 82 33 8 17 6 31 44 56 71 154 155 146 87
189 127 185 173 130 75 329 278 66 109 143 124 23 13 20 20 12 24 62 71 84 46 23 18 25 0 28 32 76 95 116 211 127
339 259 233 223 394 268 314 139 476 62 23 20 25 16 13 18 20 33 43 74 48 13 14 36 0 0 0 19 57 87 95 130 167
352 349 327 320 387 726 330 236 162 123 53 33 34 17 0 4 27 9 1 49 58 25 16 0 0 0 0 3 11 18 27 24 17
515 487 537 838 537 524 337 389 354 169 67 28 43 37 14 2 5 19 26 24 17 13 10 1 0 0 11 7 1 0 1 7 0
592 492 418 432 342 197 117 56 27 26 1 0 2 62 68 38 15 0 0 5 9 10 11 17 13 14 15 2 2 0 0 0 1
690 615 571 336 9 0 0 0 0 0 0 0 0 0 0 1 14 6 0 0 12 32 33 4 3 8 1 5 13 5 0 0 1

GFSFLT1_con_mucape_072.txt.gz
CAPE
12 11 14 12 6 2 1 0 0 0 0 0 0 0 3 0 0 0 0 0 0 0 0 0 0 0 5 5 5 6 61 138 146
11 10 7 6 7 3 0 0 0 0 0 0 0 0 0 0 0 0 0 0 9 0 0 0 0 0 0 1 3 5 3 29 40
8 8 9 9 7 6 0 0 40 42 16 0 0 0 0 0 0 0 0 22 22 7 0 0 0 0 0 0 0 1 4 3 2
4 7 7 6 2 18 18 1 15 45 23 0 0 0 0 0 0 0 0 26 13 12 0 0 0 0 0 0 0 0 1 3 7
59 78 53 17 7 8 10 7 0 0 0 0 0 0 0 0 0 0 0 31 5 0 0 0 0 0 0 0 0 0 2 2 5
0 0 30 42 19 8 7 6 0 0 0 0 0 0 0 0 0 0 0 0 4 3 0 0 0 0 0 0 0 0 0 2 2
0 0 2 40 34 20 3 0 0 0 0 0 0 0 0 0 0 0 0 0 0 16 7 0 0 0 0 0 0 0 0 0 0
9 5 0 0 0 0 0 0 0 0 0 0 0 0 0 0 0 0 0 0 0 0 39 0 0 0 0 0 0 0 0 0 0
17 3 0 0 0 0 0 0 0 0 0 0 0 0 0 0 0 0 0 0 0 0 59 52 0 0 0 0 0 0 0 0 0
7 0 0 0 0 0 0 0 0 0 0 0 0 0 0 0 0 0 0 0 0 0 0 69 124 23 6 0 0 0 0 0 0
0 0 0 0 0 0 0 0 0 0 0 0 0 0 0 0 0 0 0 0 0 0 0 0 34 162 119 45 0 0 0 0 0
40 0 0 0 0 0 0 0 0 0 0 0 0 0 0 0 0 0 0 0 3 7 20 15 11 46 106 165 112 85 15 11 3
80 16 0 0 0 0 0 0 0 0 0 0 0 0 4 7 9 11 11 18 15 21 18 38 73 62 64 94 170 155 131 106 30
134 60 27 15 3 5 0 6 0 2 2 9 5 8 60 26 117 20 19 45 50 44 35 20 26 59 47 47 47 82 145 143 132
268 138 74 48 33 76 65 17 139 56 50 150 83 14 3 2 1 2 15 37 61 65 47 49 14 44 27 33 46 82 94 108 103
355 246 166 237 215 123 182 236 139 92 54 19 16 6 4 4 0 10 8 8 25 67 55 19 23 19 0 1 30 78 112 103 76
385 387 307 281 284 240 524 307 241 136 54 20 24 3 0 0 0 0 5 2 21 24 37 24 8 6 1 1 2 4 0 2 1
629 570 402 464 682 516 441 331 214 149 56 41 32 23 9 0 0 10 1 7 23 22 23 11 1 0 11 16 10 3 0 0 0
566 560 504 743 421 390 287 220 113 42 35 18 39 4 50 34 10 0 0 0 2 6 10 14 9 21 28 18 11 1 3 2 0
607 598 596 543 435 411 455 339 30 0 0 0 0 0 0 0 16 2 1 0 0 8 13 15 16 32 22 8 5 7 6 2 1

GFSFLT1_con_mucape_075.txt.gz
CAPE
8 10 2 5 3 1 0 0 0 0 43 54 80 22 0 0 0 0 0 0 0 0 0 0 0 1 6 9 5 7 52 155 140
10 3 1 4 1 0 0 0 0 0 0 0 19 12 0 0 0 0 0 2 4 0 0 0 0 0 0 2 5 7 2 6 39
6 8 5 5 1 0 0 0 0 0 0 0 0 0 0 0 0 0 0 24 21 0 0 0 0 0 0 0 0 1 4 5 4
11 4 10 22 24 5 0 8 25 19 0 0 0 0 0 0 0 0 0 2 3 0 0 0 0 0 0 0 0 0 2 2 5
53 77 86 38 29 27 16 7 0 0 0 0 0 0 0 0 0 0 0 0 0 0 0 0 0 0 0 0 0 0 0 2 5
21 0 14 34 20 14 15 9 0 0 0 0 0 0 0 0 0 0 0 0 0 0 0 0 0 0 0 0 0 0 0 1 1
0 0 0 39 26 11 0 0 0 0 0 0 0 0 0 0 0 0 0 0 0 0 3 0 0 0 0 0 0 0 0 0 0
0 0 0 0 0 0 0 0 0 0 0 0 0 0 0 0 0 0 0 0 0 0 0 0 0 0 0 0 0 0 0 0 0
6 1 0 0 0 0 0 0 0 0 0 0 0 0 0 0 0 0 0 0 0 0 0 101 0 0 0 0 0 0 0 0 0
25 19 0 0 0 0 0 0 0 0 0 0 0 0 0 0 0 0 0 0 0 0 0 76 114 62 10 0 0 0 0 0 0
33 15 0 0 0 0 0 0 0 0 0 0 0 0 0 0 0 0 0 0 1 9 18 16 53 185 155 121 30 9 9 4 0
20 0 0 0 0 0 0 0 0 0 0 0 0 0 0 0 0 2 8 12 8 27 29 39 26 39 84 122 102 97 69 32 20
99 66 1 0 0 0 0 0 0 0 0 0 0 0 3 3 9 11 9 13 19 19 37 42 104 144 99 104 102 115 112 76 93
191 121 45 23 17 11 11 8 7 6 0 3 2 4 7 4 10 10 10 22 30 45 73 70 61 81 77 49 50 57 96 58 60
252 205 130 70 43 36 42 64 23 17 10 16 16 13 8 6 0 0 6 19 23 44 63 77 69 55 34 42 48 62 95 92 55
312 313 245 122 122 96 146 133 204 144 87 60 11 1 0 0 0 0 0 0 10 13 56 75 61 27 27 21 39 60 82 20 13
347 368 349 223 262 304 398 312 214 275 182 53 15 3 0 0 0 0 0 0 1 18 17 33 41 36 21 6 1 6 0 0 0
389 366 414 393 425 395 426 417 404 194 110 62 19 10 1 0 0 0 0 0 0 7 13 18 9 8 9 8 16 14 5 1 1
467 578 464 489 560 504 530 609 434 258 101 95 80 54 13 18 0 0 0 0 0 2 12 9 10 10 9 30 24 19 7 3 14
436 376 313 297 266 274 240 275 194 244 317 18 0 0 0 0 9 1 0 0 0 0 0 4 2 8 11 31 29 7 4 14 4

GFSFLT1_con_mucape_078.txt.gz
CAPE
97 7 7 7 4 31 48 0 0 57 497 90 53 20 0 0 0 0 0 0 0 0 0 0 0 1 4 6 3 2 3 74 120
5 6 7 7 4 9 10 0 0 0 51 81 37 0 0 0 0 0 0 0 0 0 0 0 0 0 0 2 3 6 6 2 8
9 4 6 5 2 0 0 0 0 13 0 7 7 0 0 0 0 0 0 25 3 0 0 0 0 0 0 0 1 1 2 4 4
7 5 5 32 15 19 23 25 22 8 0 0 0 0 0 0 0 0 0 0 3 0 0 0 0 0 0 0 0 0 1 3 3
11 39 65 52 44 18 7 7 13 0 0 0 0 0 0 0 0 0 0 0 0 0 0 0 0 0 0 0 0 0 0 1 2
5 0 40 52 27 17 12 1 0 0 0 0 0 0 0 0 0 0 0 0 0 0 0 0 0 0 0 0 0 0 0 0 1
0 0 0 14 12 5 0 0 0 0 0 0 0 0 0 0 0 0 0 0 0 0 1 0 0 0 0 0 0 0 0 0 0
0 0 0 0 0 0 0 0 0 0 0 0 0 0 0 0 0 0 0 0 0 0 0 0 0 0 0 0 0 0 0 0 0
0 0 0 0 0 0 0 0 0 0 0 0 0 0 0 0 0 0 0 0 0 0 0 0 93 0 0 0 0 0 0 0 0
0 12 0 0 0 0 0 0 0 0 0 0 0 0 0 0 0 0 0 0 0 0 1 8 142 99 48 8 0 0 0 0 0
34 27 16 0 0 0 0 0 0 0 0 0 0 0 0 0 0 0 0 0 4 10 16 17 23 151 163 107 99 53 22 2 1
6 26 10 0 0 0 0 0 0 0 0 0 0 0 0 0 0 0 3 6 7 8 20 30 32 66 91 104 122 106 91 96 56
115 65 33 0 0 0 0 0 0 0 0 0 0 0 1 2 3 3 10 6 11 16 26 28 62 86 90 108 103 103 90 87 123
194 166 99 30 9 5 1 1 2 9 14 17 11 2 4 4 0 0 0 0 0 12 26 38 70 68 109 75 69 67 81 80 83
183 220 185 110 41 39 28 35 57 44 42 31 30 15 0 0 0 0 0 0 0 0 20 34 71 70 70 55 54 55 69 72 63
277 198 250 188 101 53 43 82 125 89 108 72 43 4 0 0 0 0 0 0 0 0 6 10 59 79 68 39 39 46 12 4 0
340 255 291 290 200 132 148 190 165 249 124 121 11 0 0 0 0 0 0 0 0 0 1 10 19 36 33 26 10 3 0 0 0
243 270 205 217 236 248 270 281 257 235 110 118 55 8 0 0 0 0 0 0 0 0 1 12 19 25 13 11 6 9 6 3 5
173 158 178 181 243 289 270 267 254 224 165 87 124 201 129 48 0 0 0 0 0 0 0 8 15 12 7 15 16 28 21 12 1
96 80 135 145 121 83 178 139 141 95 95 94 133 0 0 0 0 0 0 0 0 0 0 4 5 4 8 15 34 19 24 19 11

GFSFLT1_con_mucape_081.txt.gz
CAPE
10 9 32 93 94 26 2 38 275 442 295 57 26 0 0 0 0 0 0 0 0 0 0 0 0 1 3 3 2 0 0 0 0
11 9 7 6 72 49 0 37 53 155 185 63 0 0 0 0 0 0 1 2 0 0 0 0 0 0 0 0 1 2 2 1 0
9 9 6 7 75 50 17 30 23 22 64 41 0 0 0 0 0 0 5 12 4 0 0 0 0 0 0 0 0 0 1 2 2
13 13 8 33 52 45 34 27 15 10 0 0 0 0 0 0 0 0 0 0 4 0 0 0 0 0 0 0 0 0 1 2 2
63 69 91 52 36 36 42 35 16 0 0 0 0 0 0 0 0 0 0 0 0 0 0 0 0 0 0 0 0 0 0 0 2
7 2 49 92 53 20 14 0 0 0 0 0 0 0 0 0 0 0 0 0 0 0 0 0 0 0 0 0 0 0 0 0 0
1 0 5 58 34 20 6 0 0 0 0 0 0 0 0 0 0 0 0 0 0 0 0 0 0 0 0 0 0 0 0 0 0
22 36 25 27 0 0 0 0 0 0 0 0 0 0 0 0 0 0 0 0 0 0 0 0 0 0 0 0 0 0 0 0 0
0 0 2 0 0 0 0 0 0 0 0 0 0 0 0 0 0 0 0 0 0 0 0 0 82 6 0 0 0 0 0 0 0
0 0 0 0 0 0 0 0 0 0 0 0 0 0 0 0 0 0 0 0 0 0 5 2 90 102 57 25 0 0 0 0 0
4 7 0 0 0 0 0 0 0 0 0 0 0 0 0 0 0 0 0 0 1 4 8 8 23 56 138 102 102 87 43 15 2
34 24 21 3 0 0 0 0 0 0 0 0 0 0 0 0 0 0 0 0 1 0 3 10 22 38 71 107 101 89 117 113 80
47 27 33 3 0 0 0 0 0 0 0 0 0 0 0 0 0 0 0 0 0 0 3 7 29 53 64 89 97 80 81 95 82
43 96 68 41 0 0 0 0 0 0 0 0 0 2 0 0 0 0 0 0 0 0 0 5 18 43 54 59 93 62 66 68 64
93 140 158 101 43 5 0 0 7 24 24 19 27 46 22 0 3 0 0 0 0 0 0 0 7 23 51 50 40 55 76 67 63
174 176 182 182 122 61 32 29 49 70 37 65 73 12 0 0 0 0 0 0 0 0 0 0 0 20 46 46 28 58 39 24 8
236 243 168 198 240 168 91 67 108 100 85 163 17 16 0 0 0 0 0 0 0 0 0 0 0 13 28 42 22 22 11 10 7
128 152 150 146 191 174 147 164 193 198 152 79 72 8 1 0 0 0 0 0 0 0 0 0 0 7 26 17 9 7 12 11 11
109 127 137 131 118 87 111 149 142 170 267 105 89 19 36 12 4 0 0 0 0 0 0 0 0 10 16 11 10 9 10 27 19
118 108 74 45 79 100 67 52 49 68 113 96 62 49 10 0 0 0 0 0 0 0 0 0 0 0 4 12 18 15 33 27 30

GFSFLT1_con_mucape_084.txt.gz
CAPE
30 205 277 299 225 15 77 209 335 519 69 18 0 0 0 0 0 0 0 0 0 0 0 0 0 0 0 0 0 0 0 0 0
25 14 109 146 109 51 91 299 157 103 58 1 0 0 0 0 0 2 6 5 1 0 0 0 0 0 0 0 0 0 0 0 0
10 10 64 112 36 47 41 40 98 115 54 0 0 0 0 0 0 1 5 6 3 0 0 0 0 0 0 0 0 0 0 0 2
5 18 51 89 52 44 32 22 11 15 22 0 0 0 0 0 0 0 0 0 3 0 0 0 0 0 0 0 0 0 0 1 2
46 2 5 119 97 60 38 27 13 0 0 0 0 0 0 0 0 0 0 0 0 0 0 0 0 0 0 0 0 0 0 0 0
8 5 7 93 72 51 46 32 7 0 0 0 0 0 0 0 0 0 0 0 0 0 0 0 0 0 0 0 0 0 0 0 0
3 6 46 102 87 57 18 1 0 0 0 0 0 0 0 0 0 0 0 0 0 0 0 0 0 0 0 0 0 0 0 0 0
5 36 47 22 0 0 0 0 0 0 0 0 0 0 0 0 0 0 0 0 0 0 0 13 0 0 0 0 0 0 0 0 0
2 3 0 0 0 0 0 0 0 0 0 0 0 0 0 0 0 0 0 0 0 0 0 0 95 49 0 0 0 0 0 0 0
0 0 0 0 0 0 0 0 0 0 0 0 0 0 0 0 0 0 0 0 0 0 0 1 18 156 74 60 25 0 0 0 0
0 0 0 0 0 0 0 0 0 0 0 0 0 0 0 0 0 0 0 0 0 0 1 10 19 41 104 119 109 84 50 37 10
46 28 68 52 16 0 0 0 0 3 0 0 0 0 3 2 1 3 5 3 0 0 0 7 20 27 56 90 101 107 97 123 120
136 151 149 101 26 7 1 0 0 0 0 0 0 1 5 35 9 14 11 7 1 0 0 0 14 43 61 127 123 72 98 93 113
186 114 119 122 39 21 10 13 0 0 0 0 13 33 45 54 10 12 15 9 0 1 0 0 0 0 25 62 92 73 68 85 86
304 100 110 99 57 17 19 4 0 0 6 31 35 82 58 41 62 40 4 1 0 0 0 0 3 0 1 23 69 41 60 77 66
196 78 120 168 144 73 28 7 0 7 69 168 93 46 52 34 21 6 0 0 0 0 0 0 0 5 0 23 24 26 60 28 21
190 141 151 182 213 192 80 21 55 91 162 148 171 29 16 0 0 0 0 0 0 0 0 0 0 11 22 33 33 45 39 33 29
286 261 175 127 135 310 221 182 206 377 200 208 154 40 1 5 0 0 0 0 0 0 0 0 0 0 0 18 24 14 10 25 42
175 125 76 105 55 108 104 86 117 257 203 167 179 201 91 23 0 0 0 0 0 0 0 0 0 0 0 7 15 11 5 16 22
83 117 76 37 75 56 78 32 60 58 46 33 69 156 169 67 56 0 0 0 0 0 0 0 0 0 0 0 0 6 11 8 9

GFSFLT1_con_mucape_087.txt.gz
CAPE
235 414 431 259 37 55 36 111 134 94 0 0 0 0 0 0 0 0 0 0 0 0 0 0 0 0 0 0 0 0 0 0 0
112 359 300 175 106 91 293 364 200 53 0 0 0 0 0 0 0 1 0 0 1 0 0 0 0 0 0 0 0 0 0 0 0
93 232 213 160 76 118 301 146 107 64 0 0 0 0 0 0 0 1 0 1 1 0 0 0 0 0 0 0 0 0 1 1 1
7 120 273 146 14 75 60 96 118 82 0 0 0 0 0 0 0 0 0 0 1 0 0 0 0 0 0 0 0 0 0 0 0
32 25 201 169 67 65 38 22 14 0 0 0 0 0 0 0 0 0 0 0 0 0 0 0 0 0 0 0 0 0 0 0 0
5 13 92 144 139 78 37 25 11 3 0 0 0 0 0 0 0 0 0 0 0 0 0 0 0 0 0 0 0 0 0 0 0
0 4 26 109 100 82 46 20 0 0 0 0 0 0 0 0 0 0 0 0 0 0 0 0 0 0 0 0 0 0 0 0 0
9 10 9 35 15 2 8 0 0 0 0 0 0 0 0 0 0 0 0 0 0 0 0 0 0 0 0 0 0 0 0 0 0
5 1 0 0 0 0 0 0 0 0 0 0 0 0 0 0 0 0 0 0 0 0 0 0 40 46 2 0 0 0 0 0 0
1 0 0 0 0 0 0 0 0 0 0 0 0 0 0 0 0 0 0 0 0 0 0 0 3 32 103 51 33 6 0 0 0
32 0 6 0 0 0 0 0 0 0 0 0 0 0 0 0 1 0 0 0 0 0 0 9 15 23 49 93 112 103 60 48 29
0 0 0 0 0 0 0 0 0 0 0 0 0 0 3 2 0 10 17 7 0 0 0 12 36 49 44 67 98 107 129 97 111
54 37 66 68 50 20 0 0 0 0 0 0 0 0 4 2 10 15 17 22 16 6 5 3 11 38 62 82 91 59 179 114 107
190 199 196 146 99 26 15 10 4 6 1 0 0 30 46 41 7 6 11 21 8 5 3 0 0 0 10 57 117 91 90 92 89
411 244 131 138 154 75 41 17 32 15 8 0 6 76 97 80 30 13 8 0 0 0 0 0 3 1 0 4 60 76 79 83 76
512 371 140 173 246 185 69 36 19 18 18 61 62 91 93 65 53 24 0 0 0 0 0 0 0 12 3 0 6 27 73 55 31
321 361 223 229 267 235 212 133 44 35 60 226 150 158 91 35 7 0 0 0 0 0 0 0 0 0 9 0 0 24 37 34 21
427 432 356 279 182 221 311 175 99 149 263 295 225 103 35 70 12 19 0 0 0 0 0 0 0 0 0 0 0 6 12 26 39
347 316 391 284 195 93 103 140 93 203 254 216 150 118 133 65 32 17 0 0 0 0 0 0 0 0 0 0 0 8 10 16 44
238 310 252 158 120 92 70 68 80 17 115 45 19 16 12 48 74 0 0 0 0 0 0 0 0 0 0 0 0 0 0 6 29

GFSFLT1_con_mucape_090.txt.gz
CAPE
710 617 365 321 246 332 113 89 65 0 0 0 0 0 0 0 0 0 0 0 1 0 0 0 0 0 0 0 0 0 0 0 1
478 344 59 15 100 60 79 116 24 0 0 0 0 0 0 0 0 0 0 0 0 0 0 0 0 0 0 0 0 0 1 1 0
351 147 8 8 75 216 405 203 39 0 0 0 0 0 0 0 0 0 0 2 1 0 0 0 0 0 0 0 0 0 0 0 0
34 19 118 174 143 428 354 141 80 0 0 0 0 0 0 0 0 0 0 0 0 0 0 0 0 0 0 0 0 0 0 0 0
9 69 62 55 169 158 171 159 118 41 0 0 0 0 0 0 0 0 0 0 0 0 0 0 0 0 0 0 0 0 0 0 0
4 11 29 66 112 110 63 35 33 6 0 0 0 0 0 0 0 0 0 0 0 0 0 0 0 0 0 0 0 0 0 0 0
3 13 23 91 102 90 72 42 22 0 0 0 0 0 0 0 0 0 0 0 0 0 0 0 0 0 0 0 0 0 0 0 0
0 4 11 10 8 5 14 4 0 0 0 0 0 0 0 0 0 0 0 0 0 0 0 0 0 0 0 0 0 0 0 0 0
0 0 0 4 0 0 0 0 0 0 0 0 0 0 0 0 0 0 0 0 0 0 0 0 21 51 13 1 0 0 0 0 0
0 0 0 0 0 0 0 0 0 0 0 0 0 0 0 0 0 0 0 0 0 0 0 0 0 3 100 87 50 12 2 0 0
0 0 0 0 0 0 0 0 0 0 0 0 0 0 0 0 0 0 0 0 0 0 0 0 11 21 23 52 106 106 82 62 51
0 0 0 0 0 0 0 0 0 0 0 0 0 0 0 0 0 0 0 1 0 0 6 23 28 31 31 37 128 105 107 95 84
0 0 0 0 0 0 0 0 0 0 0 0 0 0 0 0 0 4 9 4 6 1 7 43 50 23 17 70 107 64 168 144 130
0 0 0 20 39 39 8 0 0 0 0 7 0 0 0 12 13 12 3 0 7 1 0 0 0 0 0 0 40 110 258 114 83
116 135 131 131 108 95 33 15 13 7 16 0 0 0 15 41 29 22 22 4 1 0 0 0 0 0 0 0 2 58 110 45 39
372 236 138 106 160 154 60 55 26 30 28 3 0 9 20 35 55 15 15 2 0 0 0 0 0 0 0 0 0 16 30 42 27
368 353 290 109 174 252 207 142 99 56 26 10 66 47 28 11 43 27 9 0 0 0 0 0 0 0 0 0 0 0 39 26 20
324 294 313 242 239 263 293 246 196 101 96 41 125 94 50 48 33 9 0 0 0 0 0 0 0 0 0 0 0 0 0 9 42
344 317 298 290 250 232 235 172 160 154 127 105 148 101 55 30 3 4 0 0 0 0 0 0 0 0 0 0 0 0 0 7 26
244 253 279 247 192 189 110 115 90 61 78 78 69 100 54 13 0 0 0 0 0 0 0 0 0 0 0 0 0 0 0 1 11

GFSFLT1_con_mucape_093.txt.gz
CAPE
881 782 898 604 252 73 0 8 5 0 0 0 0 0 0 0 0 0 0 0 0 0 0 0 0 0 0 0 0 1 1 1 1
853 592 586 297 343 214 28 12 0 0 0 0 0 0 0 0 0 0 0 0 0 0 1 0 0 0 0 0 1 1 0 1 2
614 482 111 10 14 69 83 20 0 0 0 0 0 0 0 0 0 0 0 2 0 0 0 0 0 0 0 0 0 0 0 0 1
280 103 7 54 231 537 479 65 0 0 0 0 0 0 0 0 0 0 0 1 0 0 0 0 0 0 0 0 0 0 0 0 0
7 47 29 8 668 529 407 150 21 0 0 0 0 0 0 0 0 0 0 0 0 0 0 0 0 0 0 0 0 0 0 0 0
0 14 22 105 188 223 235 185 115 21 0 0 0 0 0 0 0 0 0 0 0 0 0 0 0 0 0 0 0 0 0 0 0
0 17 12 31 85 77 74 42 17 0 0 0 0 0 0 0 0 0 24 0 0 0 0 0 0 0 0 0 0 0 0 0 0
2 20 16 9 11 0 7 6 0 0 0 0 0 0 0 0 0 0 0 0 0 0 0 0 0 0 0 0 0 0 0 0 0
1 16 20 8 7 0 0 0 0 0 0 0 0 0 0 0 0 0 0 0 0 0 0 0 6 22 13 1 0 0 0 0 0
0 2 7 2 1 0 0 0 0 0 0 0 0 0 0 0 0 0 0 0 0 0 0 0 0 0 48 110 54 16 3 0 0
20 1 1 0 0 0 0 0 0 0 0 0 0 0 0 0 0 0 0 0 0 0 0 0 2 12 19 27 110 94 65 42 18
47 0 0 0 0 0 0 0 0 0 0 0 0 0 0 0 0 0 0 0 0 0 3 16 28 44 60 67 70 190 122 98 71
46 9 0 0 0 0 0 0 0 0 0 0 0 0 0 0 0 0 0 2 1 2 2 94 136 115 73 54 90 210 274 228 219
16 25 0 5 4 0 0 0 0 0 0 0 16 0 0 16 26 20 9 11 3 0 0 0 0 10 25 7 17 87 253 306 183
41 29 18 7 0 0 0 0 0 0 0 0 26 9 0 11 20 22 11 8 8 0 0 0 0 0 0 0 4 41 155 155 25
17 34 14 28 57 77 77 32 13 20 17 20 14 3 6 22 17 44 46 4 3 1 0 0 0 0 0 0 0 63 116 91 49
245 219 196 179 177 172 153 78 54 50 42 26 24 8 18 15 16 33 32 7 9 0 0 0 0 0 0 0 0 0 30 55 23
210 275 300 203 137 207 232 194 120 133 102 79 54 73 58 44 55 36 56 5 6 0 0 0 0 0 0 0 0 1 26 37 38
129 133 238 299 235 253 284 293 249 216 139 115 116 73 38 39 40 40 52 41 3 0 0 0 0 0 0 0 0 0 1 9 34
154 129 91 137 161 201 203 267 230 160 141 108 85 74 74 79 37 40 17 0 0 0 0 0 0 0 0 0 0 0 0 0 14

GFSFLT1_con_mucape_096.txt.gz
CAPE
1024 1189 1025 700 399 291 31 8 3 0 0 0 0 0 0 0 0 0 0 0 1 1 0 0 0 0 0 1 2 1 0 3 4
1004 1001 810 423 280 87 11 6 0 0 0 0 0 0 0 0 0 0 0 0 1 1 0 0 0 0 1 1 1 0 2 2 3
838 752 731 489 355 49 42 1 0 0 0 0 0 0 0 0 0 0 0 0 0 0 0 0 0 0 0 0 0 0 0 1 3
721 576 493 79 36 362 197 0 0 0 0 0 0 0 0 0 0 0 0 0 0 0 0 0 0 0 0 0 0 0 0 0 2
492 189 34 63 275 425 398 38 0 0 0 0 0 0 0 0 0 0 0 0 0 0 0 0 0 0 0 0 0 0 0 0 0
23 1 16 39 498 671 383 89 34 11 0 0 0 0 0 0 0 0 0 0 0 0 0 0 0 0 0 0 0 0 0 0 0
34 0 8 86 312 353 459 236 75 0 0 0 0 0 0 0 0 0 0 0 0 0 0 0 0 0 0 0 0 0 0 0 0
36 2 3 20 40 19 64 29 0 0 0 0 0 0 0 0 0 0 0 0 0 0 0 0 0 0 0 0 0 0 0 0 0
58 11 3 8 13 6 0 0 0 0 0 0 0 0 0 0 0 0 0 0 0 0 0 0 12 2 0 0 0 0 0 0 0
87 15 10 3 3 9 0 0 0 0 0 0 0 0 0 0 0 0 0 0 0 0 0 0 0 7 38 94 47 16 3 0 0
58 2 15 4 3 11 0 0 0 0 0 0 0 0 0 0 0 0 0 0 0 0 0 4 11 9 6 24 68 78 55 34 7
10 50 66 38 36 43 0 0 0 0 0 0 0 0 0 0 0 0 0 0 0 0 4 52 55 66 74 62 80 284 144 88 80
56 5 18 87 100 36 15 0 0 0 0 0 0 0 0 0 0 0 0 0 0 0 0 90 171 166 136 77 19 118 250 278 301
123 67 79 76 43 5 0 0 0 0 0 0 0 0 0 0 0 0 0 0 2 1 0 0 3 19 63 26 40 43 176 378 280
94 106 97 58 0 5 0 0 0 0 0 0 1 14 3 0 0 0 0 0 2 14 0 0 0 0 0 2 4 30 104 271 149
100 129 97 67 49 28 0 0 0 0 0 0 1 21 14 0 3 13 0 4 0 10 0 0 0 0 0 0 0 41 132 212 82
87 113 96 78 57 59 13 0 14 14 2 4 37 21 3 0 22 13 21 5 1 1 1 0 0 0 0 0 0 4 32 121 66
41 99 130 127 64 20 54 116 110 55 66 76 67 35 44 39 24 38 16 35 15 18 0 0 0 0 0 0 0 0 6 70 62
83 118 169 112 105 217 246 227 236 147 131 144 131 100 90 86 63 49 42 57 64 15 13 3 0 0 0 0 0 0 1 5 46
48 100 104 138 229 197 209 207 222 207 194 104 90 83 72 63 42 51 60 35 22 34 36 1 1 0 0 0 0 0 0 0 5

GFSFLT1_con_mucape_099.txt.gz
CAPE
911 1344 895 833 704 439 209 130 42 1 0 0 0 0 0 0 0 0 0 0 0 1 1 1 1 1 2 1 1 2 3 5 3
1065 1015 741 583 577 259 51 14 35 0 0 0 0 0 0 0 0 0 0 0 3 2 1 0 0 2 1 0 0 1 3 2 2
815 807 704 534 170 54 28 28 0 0 0 0 0 0 0 0 0 0 0 1 1 1 1 0 1 0 0 0 0 0 0 1 1
813 691 710 449 226 123 30 2 0 0 0 0 0 0 0 0 0 0 0 2 0 0 0 0 0 0 0 0 0 0 0 0 0
426 416 520 532 380 392 122 2 0 0 0 0 0 0 0 0 0 0 0 0 0 0 0 0 0 0 0 0 0 0 0 0 0
66 144 122 87 141 324 132 7 0 0 0 0 0 0 0 0 0 0 0 0 0 0 0 0 0 0 0 0 0 0 0 0 0
89 18 51 35 90 507 329 81 42 0 0 0 0 0 0 0 0 0 0 0 0 0 0 0 0 0 0 0 0 0 0 0 0
107 50 56 14 77 218 213 128 0 0 0 0 0 0 0 0 0 0 0 0 0 0 0 0 0 0 0 0 0 0 0 0 0
223 156 53 14 132 95 118 85 0 0 0 0 0 0 0 0 0 0 0 70 0 0 0 2 5 3 0 0 0 0 0 0 0
145 164 125 16 6 50 53 26 0 0 0 0 0 0 0 0 0 0 0 0 70 11 0 0 23 34 51 59 52 30 8 0 0
194 129 126 49 6 24 54 20 0 0 0 0 0 0 0 0 0 0 0 0 0 2 0 0 0 17 24 38 79 132 129 50 11
178 27 122 34 32 31 35 20 0 0 0 0 0 0 0 0 0 0 0 0 0 0 0 40 0 67 73 71 95 273 205 165 88
116 26 26 17 50 62 78 58 11 0 0 0 0 0 0 0 0 0 0 0 0 0 0 56 151 133 119 117 58 53 208 249 251
113 40 35 3 4 62 94 76 38 0 0 0 0 0 0 0 0 0 0 0 0 0 0 0 0 28 89 52 21 40 113 274 246
124 57 24 3 54 91 116 67 50 0 0 0 0 0 0 0 0 0 0 0 13 4 1 0 0 0 0 0 3 0 31 160 230
83 90 93 78 66 122 91 109 58 19 28 1 0 0 7 10 16 10 0 0 7 0 0 2 2 0 0 0 0 7 56 113 218
76 111 104 169 84 110 66 18 4 25 22 0 0 4 1 20 29 15 14 36 26 35 1 4 0 0 0 0 0 0 3 78 111
49 49 75 78 74 103 82 81 77 36 36 0 20 37 29 33 23 19 40 67 57 38 37 1 0 0 0 0 0 0 0 54 130
69 40 36 37 86 131 124 111 104 103 32 26 48 76 77 76 57 25 36 105 72 115 92 92 21 6 0 0 0 0 0 1 94
39 53 16 37 90 123 133 140 151 87 96 135 75 107 120 95 64 68 47 67 107 104 101 74 37 13 7 17 0 0 0 0 1

GFSFLT1_con_mucape_102.txt.gz
CAPE
725 1326 1274 1097 806 827 492 87 16 3 0 0 0 0 0 0 0 0 0 0 1 1 1 0 2 4 1 1 1 2 2 0 2
1257 1101 1085 916 701 550 200 93 19 0 0 0 0 0 0 0 0 0 0 0 3 1 0 0 1 1 1 0 1 1 1 2 2
1140 858 1054 792 569 342 69 62 15 0 0 0 0 0 0 0 0 0 0 2 1 1 1 0 0 0 0 0 0 0 1 1 2
1026 809 914 698 615 394 176 67 5 0 0 0 39 0 0 0 0 0 0 4 1 1 0 0 0 0 0 0 0 0 0 0 1
781 617 499 593 555 390 214 2 0 10 0 0 0 0 0 0 0 0 0 3 1 0 0 0 0 0 0 0 0 0 0 0 0
327 307 341 447 530 413 86 0 0 0 0 0 0 0 0 0 0 0 0 1 1 0 0 0 0 0 0 0 0 0 0 0 0
264 232 307 294 337 356 169 7 0 0 0 0 0 0 0 0 0 0 0 0 1 0 0 0 0 0 0 0 0 0 0 0 0
323 248 242 16 52 77 169 36 0 0 0 0 0 0 0 0 0 0 0 0 1 0 0 0 0 0 0 0 0 0 0 0 0
284 238 111 61 112 117 157 51 5 0 0 0 0 0 0 0 0 0 0 2 3 4 0 0 0 0 0 0 0 0 0 0 0
201 169 122 163 143 107 154 93 7 0 0 0 0 0 0 0 0 0 0 0 70 96 22 27 35 34 27 14 8 10 0 0 0
183 151 109 181 161 149 184 90 37 3 0 0 0 0 0 0 0 0 0 0 0 55 63 8 53 37 36 42 115 123 112 84 35
169 180 136 135 87 113 73 50 42 0 0 0 0 0 0 0 0 0 0 0 0 0 0 77 72 84 101 66 86 260 213 208 128
142 166 165 182 120 51 38 55 40 22 0 0 0 0 0 0 0 0 0 0 0 0 0 6 183 215 130 135 150 113 143 220 254
104 155 177 140 159 93 38 51 82 36 12 0 0 0 0 0 0 0 0 0 0 0 0 0 0 50 130 147 148 57 111 210 285
89 112 162 75 117 91 16 1 32 71 80 70 0 0 0 0 0 0 0 0 0 0 0 0 0 0 0 44 22 29 65 101 212
93 174 101 92 23 0 0 29 68 92 151 115 0 12 0 0 0 0 0 0 0 7 21 9 0 0 0 3 16 22 69 148 166
44 67 110 93 96 58 28 27 9 19 80 77 31 28 2 0 0 0 8 25 10 22 40 39 26 28 0 0 0 2 26 166 261
64 49 93 107 89 38 37 38 38 18 7 86 52 21 0 0 0 8 46 49 36 28 66 64 34 8 5 11 7 0 0 104 224
66 68 67 97 72 54 43 35 30 64 5 18 69 53 42 23 22 37 54 80 86 110 123 68 56 40 18 31 19 2 0 8 229
17 59 69 51 55 44 62 52 58 46 63 64 80 80 68 102 96 102 104 94 82 154 144 128 116 94 45 44 34 49 7 10 60

GFSFLT1_con_mucape_105.txt.gz
CAPE
1203 1344 1082 662 881 815 442 403 219 220 92 0 0 0 0 0 0 0 0 0 0 0 1 2 2 2 3 2 2 2 3 4 6
1234 1292 1107 979 836 900 297 85 5 0 0 0 0 0 0 0 0 0 0 2 2 2 2 2 1 1 2 3 4 4 4 3 2
1032 1155 1222 1111 900 590 225 47 0 0 0 0 0 0 0 0 0 0 0 6 3 2 1 1 0 1 1 1 1 2 2 2 4
928 913 957 926 725 690 512 90 9 2 0 28 0 0 0 0 0 0 0 3 3 1 0 0 0 0 0 0 0 0 0 0 0
801 719 635 592 490 542 448 248 26 55 13 0 0 0 0 0 0 0 0 0 1 0 0 0 0 0 0 0 0 0 0 0 0
573 312 378 443 449 595 486 217 53 55 3 0 0 0 0 0 0 0 0 1 2 0 0 0 0 0 0 0 0 0 0 0 0
568 322 339 437 391 445 374 117 30 4 0 0 0 0 0 0 0 0 0 15 3 0 0 0 0 0 0 0 0 0 0 0 0
574 479 480 366 300 409 146 33 3 3 0 0 0 0 0 0 0 0 0 5 5 3 0 0 0 0 0 0 0 0 0 0 0
452 407 544 305 265 255 231 66 3 0 0 0 0 0 0 0 0 0 0 0 38 8 3 0 0 0 0 0 0 0 0 0 0
221 214 202 255 177 243 239 125 10 0 0 0 0 0 0 0 0 0 0 0 0 68 100 40 15 26 16 13 13 13 0 0 0
158 154 163 160 131 128 197 164 91 0 0 0 0 0 0 0 0 0 0 0 0 0 127 92 94 138 154 132 132 162 149 105 60
137 134 142 140 102 66 111 94 104 38 0 0 0 0 0 0 0 0 0 0 0 0 0 54 71 115 129 138 164 372 200 154 166
165 160 160 134 122 151 149 96 130 84 62 5 0 0 0 0 0 0 0 0 0 0 0 4 112 208 177 190 186 272 142 191 347
142 144 142 133 126 127 143 63 91 79 48 60 16 0 0 0 0 0 0 0 0 0 0 0 0 58 259 196 198 191 146 194 321
100 74 95 129 117 128 113 88 90 67 31 55 85 8 0 0 0 0 0 0 0 0 0 0 0 0 24 130 163 191 75 127 176
97 108 173 64 114 84 86 97 92 8 3 11 19 0 15 0 0 0 0 0 0 0 0 8 19 15 18 55 177 129 94 128 146
63 127 151 143 72 55 27 22 30 18 11 0 0 0 10 17 5 14 0 0 0 1 18 19 53 62 60 47 59 131 132 137 203
36 55 171 158 66 135 23 21 4 2 1 6 0 0 0 15 11 22 40 26 22 6 42 53 66 117 120 83 30 4 63 99 177
111 103 97 150 121 110 47 43 15 8 4 2 0 2 0 0 1 16 21 44 64 46 90 85 111 146 157 133 94 49 25 35 123
80 136 122 161 163 138 119 49 41 23 5 5 0 0 0 81 99 91 62 58 46 49 104 131 101 123 106 110 78 66 75 45 166

GFSFLT1_con_mucape_108.txt.gz
CAPE
1009 1278 1111 1203 793 822 385 115 79 150 7 1 0 0 0 0 0 0 0 0 0 0 0 1 1 2 2 2 4 4 4 1 2
1177 1008 1051 807 859 667 340 136 71 72 113 0 0 0 0 0 0 0 0 0 2 2 2 2 3 2 2 3 2 4 2 2 0
1016 1163 1412 1040 952 784 482 233 52 3 0 20 0 0 0 0 0 0 0 0 2 3 2 1 1 1 1 1 1 2 1 1 1
1182 1252 1370 1192 1185 699 724 276 14 33 27 64 0 0 0 0 0 0 0 0 5 2 1 0 0 0 0 0 0 0 0 0 0
881 876 966 973 906 905 618 439 72 84 110 177 46 0 0 0 0 0 0 0 5 1 0 0 0 0 0 0 0 0 0 0 0
699 509 550 562 603 572 600 521 208 112 19 58 0 0 0 0 0 0 0 0 5 2 0 0 0 0 0 0 0 0 0 0 0
390 427 288 464 451 395 571 535 202 22 0 0 0 0 0 0 0 0 0 0 5 2 0 0 0 0 0 0 0 0 0 0 0
614 580 656 879 277 473 372 371 35 5 0 0 0 0 0 0 0 0 0 2 39 8 1 0 0 0 0 0 0 0 0 0 0
407 403 661 794 660 587 425 268 16 3 0 0 0 0 0 0 0 0 0 0 73 79 15 1 1 0 0 0 0 0 0 0 0
525 680 709 904 846 660 733 294 85 40 0 0 0 0 0 0 0 0 0 0 4 110 126 84 8 14 10 8 0 0 0 0 0
773 744 698 658 787 475 330 363 193 64 5 0 0 0 0 0 0 0 0 0 0 0 129 282 235 182 154 136 125 108 115 84 53
422 584 555 593 706 222 210 262 138 125 13 0 0 0 0 0 0 0 0 0 0 0 0 42 293 246 249 259 235 345 273 245 167
320 320 364 362 349 359 351 292 184 169 84 29 0 0 0 0 0 0 0 0 0 0 0 17 128 315 273 302 266 451 340 372 405
228 262 218 206 273 282 347 343 292 103 138 77 19 6 0 0 0 0 0 0 0 0 0 0 0 55 300 313 372 352 384 384 329
212 230 218 166 157 208 313 261 238 197 210 38 52 45 29 2 0 0 0 0 0 0 0 0 0 0 13 134 245 316 416 477 309
219 227 206 112 82 134 105 92 156 110 112 57 22 20 12 19 8 2 0 0 0 0 0 0 0 0 0 28 211 239 302 315 305
234 213 237 234 153 215 140 114 71 62 152 76 61 18 0 1 0 2 0 7 41 31 38 44 33 32 41 43 61 225 281 310 209
287 218 297 255 197 95 244 203 155 110 99 78 55 8 0 0 0 0 0 43 77 66 83 80 105 102 105 100 126 103 206 333 269
333 323 200 227 223 195 309 313 155 138 59 62 20 14 5 4 0 0 14 35 66 69 106 109 139 147 160 113 151 148 136 245 274
339 338 329 287 289 215 283 305 251 167 32 27 12 11 5 6 7 0 22 1 36 62 89 142 122 132 147 154 192 157 102 123 161

GFSFLT1_con_mucape_111.txt.gz
CAPE
838 1024 994 1084 831 882 945 415 140 214 93 41 4 0 0 0 0 0 0 0 0 0 0 0 1 2 2 2 2 2 2 2 2
1122 1123 1434 1327 760 794 532 199 101 28 30 0 0 0 0 0 0 0 0 0 0 1 2 1 1 1 2 2 2 2 2 1 2
1065 1152 1302 1194 731 709 519 281 107 20 24 12 0 0 0 0 0 0 0 0 0 1 1 0 0 0 1 1 1 1 2 1 1
1128 1013 1197 1205 1232 1095 835 539 302 27 9 152 45 0 0 0 0 0 2 0 1 0 0 0 0 0 0 0 0 0 0 0 0
855 785 780 1204 1142 1029 821 442 227 124 148 162 23 0 0 0 0 0 4 0 2 1 0 0 0 0 0 0 0 0 0 0 0
501 458 427 848 875 777 582 423 295 216 63 162 10 0 0 0 0 0 41 0 4 4 0 0 0 0 0 0 0 0 0 0 0
65 195 339 600 770 570 606 477 300 52 0 0 0 0 0 0 0 0 37 51 19 8 2 0 0 0 0 0 0 0 0 0 0
237 358 535 681 381 764 351 292 119 3 0 0 0 0 0 0 0 0 3 5 71 40 2 1 0 0 0 0 0 0 0 0 0
134 259 608 765 757 789 925 693 235 56 0 0 0 0 0 0 0 0 0 0 38 91 54 1 1 1 0 0 0 0 0 0 0
326 372 599 587 903 867 880 801 320 93 24 10 0 0 0 0 0 0 0 0 0 33 145 122 26 1 1 1 1 0 0 0 0
541 837 924 911 1141 1030 772 573 666 169 42 30 0 0 0 0 0 0 0 0 0 0 13 175 173 137 62 79 71 56 58 51 36
251 483 821 811 1028 865 981 676 548 209 53 19 53 0 0 0 0 0 0 0 0 0 0 0 97 346 316 319 239 435 533 371 233
133 214 436 411 433 505 512 299 151 168 58 24 13 14 0 0 0 0 0 0 0 0 0 17 38 127 339 378 382 494 429 485 406
81 22 80 170 265 288 340 489 481 312 314 210 89 1 1 3 0 0 0 0 0 0 0 0 0 30 230 246 429 627 473 386 493
88 113 51 72 196 315 331 340 351 275 209 174 155 153 34 0 2 0 0 0 0 0 0 0 0 0 10 69 145 385 579 563 631
245 176 119 213 200 181 224 215 208 197 197 253 88 102 69 17 4 21 0 0 0 0 0 0 0 0 0 2 88 174 290 591 695
324 166 198 303 334 199 190 176 197 159 132 67 193 23 4 5 2 19 10 5 0 12 11 0 0 11 18 5 17 130 178 295 449
511 392 354 236 320 303 254 154 133 149 186 79 98 30 6 4 12 2 0 1 1 6 7 3 5 27 39 71 71 60 114 341 358
531 558 485 387 287 259 344 331 288 286 248 195 153 100 47 2 18 1 0 0 0 6 1 5 7 44 69 59 88 99 111 209 290
410 378 387 410 343 297 319 313 359 358 289 217 133 90 87 40 23 13 7 24 3 7 20 21 43 59 56 101 118 145 160 225 313

GFSFLT1_con_mucape_114.txt.gz
CAPE
973 995 838 829 882 853 1013 708 305 404 346 11 2 0 0 0 0 0 0 0 0 0 0 0 0 2 3 3 3 2 2 2 0
1097 1304 1243 1127 1186 770 719 484 192 107 188 52 16 0 0 0 0 0 0 0 0 0 1 0 1 3 3 3 3 2 3 2 2
1012 929 1115 1429 1227 636 793 491 159 76 60 1 0 0 0 0 0 0 0 0 0 3 1 0 0 1 1 1 1 2 3 2 0
1030 1240 1096 1072 1314 734 964 599 403 79 113 208 65 0 0 0 0 0 0 0 0 3 0 0 0 0 0 0 0 0 0 0 0
976 929 781 1038 1152 1156 902 633 474 451 223 260 41 0 0 0 0 0 0 67 0 1 0 0 0 0 0 0 0 0 0 0 0
360 439 357 721 1067 1148 1005 718 410 221 64 104 0 0 0 0 0 0 46 0 0 1 0 0 0 0 0 0 0 0 0 0 0
180 408 406 591 777 819 867 559 278 87 0 9 1 0 0 0 0 0 133 56 0 4 0 0 0 0 0 0 0 0 0 0 0
24 89 388 340 524 539 442 231 71 39 0 0 0 0 0 0 0 0 96 82 9 41 4 0 0 0 0 0 0 0 0 0 0
139 130 409 362 488 486 419 255 147 51 4 0 0 0 0 0 0 0 0 115 35 75 96 9 1 1 1 0 0 0 0 0 0
121 93 170 494 527 448 451 347 229 131 32 9 9 2 0 0 0 0 0 2 108 70 144 178 75 3 3 3 2 0 0 0 0
201 218 262 312 350 558 515 403 343 165 91 34 33 34 8 0 0 0 0 0 4 78 52 160 335 204 100 89 72 4 2 3 2
213 245 242 275 295 451 380 437 403 212 73 39 25 35 40 0 0 0 0 0 0 0 3 0 90 321 466 349 244 380 418 383 327
89 240 243 263 250 255 268 351 318 345 190 93 66 18 30 22 19 0 0 0 0 0 13 69 110 146 214 462 496 682 457 469 484
82 199 189 162 115 101 87 151 217 125 142 84 70 40 35 18 14 5 0 0 0 0 0 0 5 70 237 131 327 550 693 625 532
94 67 64 55 29 25 46 61 77 122 144 135 125 86 52 20 0 0 3 16 0 0 0 0 0 0 61 176 152 361 939 864 650
149 155 82 46 34 17 83 80 133 180 200 173 100 86 88 81 10 0 0 0 3 0 0 0 0 0 0 43 171 332 455 960 939
303 293 212 137 130 167 138 84 137 152 170 169 142 53 19 58 48 30 16 9 0 1 0 1 0 0 0 2 35 150 318 340 885
360 292 226 228 173 296 244 183 154 95 106 198 146 86 12 8 8 26 19 5 4 0 13 13 7 0 0 0 5 15 116 325 544
444 229 532 376 256 214 217 216 183 116 120 181 179 85 56 44 12 0 0 0 3 6 3 0 0 0 0 1 7 25 46 188 278
395 270 416 334 248 179 152 200 169 175 120 135 102 149 115 102 43 1 0 0 0 0 1 6 13 10 0 4 24 62 83 184 248

GFSFLT1_con_mucape_117.txt.gz
CAPE
1090 1021 883 596 697 941 1277 729 406 540 383 60 0 0 0 0 0 0 0 0 0 6 1 0 2 3 1 3 1 3 3 1 2
1070 1248 1135 1014 1057 1044 894 624 365 182 210 22 34 0 0 0 0 0 0 0 0 0 2 3 4 4 3 4 2 1 1 1 1
1209 1294 1218 1413 1200 1153 710 811 418 138 90 74 27 0 0 0 0 0 0 0 0 2 1 0 1 4 4 3 2 3 1 0 1
1178 1357 1294 1254 1475 1176 820 948 647 188 145 216 0 0 0 0 0 0 0 54 0 1 0 0 1 1 1 0 0 0 0 0 0
1004 1013 1015 1253 1163 1139 993 1018 631 452 363 370 140 0 0 0 0 0 0 165 0 1 0 0 0 0 0 0 0 0 0 0 0
429 477 495 712 1043 1088 1185 939 667 384 206 118 101 0 0 0 0 0 9 106 9 0 0 0 1 0 0 0 0 0 0 0 0
341 322 291 342 731 783 1210 1002 572 124 9 14 1 0 0 0 0 0 67 227 68 6 0 0 0 0 0 0 0 0 0 0 0
307 358 262 338 407 497 601 634 304 115 26 0 0 0 0 0 0 0 79 470 62 34 2 0 2 1 0 0 0 0 0 0 0
206 49 57 204 396 449 376 349 252 150 81 30 0 0 0 0 0 0 0 339 239 35 73 9 1 2 2 0 0 0 0 0 0
148 187 201 322 388 397 418 308 250 179 148 90 24 4 0 0 0 0 0 28 296 358 159 181 88 13 3 3 2 1 0 0 0
222 298 178 241 381 471 404 377 306 290 222 106 26 24 21 17 0 0 0 0 83 327 560 281 318 257 95 54 36 10 2 2 2
263 289 239 304 453 555 437 328 368 339 263 174 115 43 15 31 58 16 0 0 2 65 335 332 551 752 422 295 155 367 349 229 193
277 287 346 312 350 342 316 349 331 334 280 185 100 68 44 28 39 8 12 0 0 0 44 146 284 484 360 479 583 794 648 544 535
246 172 346 346 345 304 248 247 243 172 161 186 100 17 29 21 21 48 7 1 0 0 0 3 40 114 377 197 345 838 925 715 606
303 170 253 313 317 276 212 129 79 74 37 43 55 37 19 44 19 14 4 0 0 0 0 0 0 4 111 286 316 605 983 927 798
385 302 202 249 239 170 89 73 47 30 16 34 45 32 47 42 42 41 37 0 0 0 0 0 7 0 8 86 221 423 712 1127 1115
378 375 239 202 216 138 98 91 119 138 151 38 35 2 55 52 69 85 64 51 42 8 1 3 0 1 0 0 71 202 394 678 1188
386 447 347 231 164 125 139 154 167 116 141 148 55 56 12 11 51 94 77 60 43 10 15 1 0 1 3 22 18 8 116 339 663
122 234 352 230 244 183 249 235 181 146 108 125 94 66 53 0 0 11 62 74 51 35 11 8 10 6 0 1 18 6 13 182 334
314 184 58 52 178 124 144 197 257 242 204 143 101 73 78 54 63 44 15 20 1 3 0 0 0 7 4 16 12 8 1 187 340

GFSFLT1_con_mucape_120.txt.gz
CAPE
1256 1182 1083 695 657 916 984 993 585 586 358 154 16 0 0 0 0 0 0 0 0 1 0 0 2 4 5 4 3 3 1 1 1
1147 1391 1218 1055 935 944 955 956 611 387 303 0 0 21 0 0 0 0 0 0 0 0 0 1 2 2 3 2 3 1 1 1 1
1528 1534 1446 1477 959 886 1089 1128 733 418 155 59 168 108 0 0 0 0 0 1 0 1 1 1 2 3 4 2 2 2 1 1 1
1409 1554 1558 1428 1496 1455 1237 1274 1181 606 300 456 368 20 0 0 0 0 0 99 0 2 2 1 3 3 2 1 1 0 0 0 0
1035 1104 1099 1442 1307 1036 1186 1114 1111 711 573 553 148 0 0 0 0 0 0 75 21 1 1 1 1 2 1 0 0 0 0 0 0
460 433 536 730 1130 1132 981 1015 954 555 300 320 171 1 0 0 0 0 0 78 39 18 0 1 2 1 0 0 0 0 0 0 0
448 338 244 313 596 819 1079 1056 959 429 163 79 58 14 0 0 0 0 0 118 98 94 1 0 1 2 0 0 0 0 0 0 0
360 296 205 181 240 285 534 688 679 382 200 125 28 5 0 0 0 0 0 264 213 218 10 0 1 2 0 0 0 0 0 0 0
203 192 181 169 237 279 345 342 408 428 283 168 63 24 13 0 0 0 0 211 682 322 178 8 2 2 4 2 0 0 0 0 0
385 221 126 166 115 214 348 355 244 328 321 215 112 77 31 27 3 0 0 3 610 798 503 218 96 12 18 7 3 1 0 0 0
250 266 298 266 253 345 420 375 358 265 249 223 175 156 105 53 46 20 0 0 122 589 849 637 259 164 96 66 62 31 4 2 1
172 187 213 322 392 417 419 415 347 303 312 254 247 221 164 69 58 50 41 0 7 142 770 793 919 736 188 132 105 239 254 183 124
37 89 149 269 296 412 397 365 363 346 338 318 278 256 209 116 28 39 32 28 6 2 172 523 557 957 816 408 290 660 510 453 427
87 76 135 89 242 292 417 468 386 313 490 371 238 202 245 176 92 16 11 4 9 4 0 68 180 277 740 464 297 902 733 695 710
132 60 82 203 139 236 321 360 366 365 317 254 187 143 127 93 35 43 23 24 1 9 0 0 1 20 223 574 472 619 878 831 778
21 31 60 99 130 213 184 220 281 310 236 102 95 48 48 33 29 9 34 30 4 8 0 1 4 0 0 134 332 540 717 971 994
4 0 87 233 179 278 288 271 205 168 124 57 71 21 7 34 56 65 44 43 45 35 30 6 0 0 0 0 32 244 422 547 880
13 12 59 289 290 206 280 308 218 177 195 151 11 3 0 1 54 87 43 55 76 64 45 49 41 34 29 7 7 8 111 375 556
27 64 99 109 296 257 201 245 247 189 108 181 169 100 45 18 4 2 34 80 82 76 48 34 50 29 19 2 0 2 12 117 244
133 138 97 96 53 30 225 179 102 185 143 151 144 91 57 19 66 45 13 1 17 31 35 24 20 28 20 0 0 0 0 54 175